KB0UOA Weather Reports


Display with metric or nautical units.
time (UTC)temp
F
wind
direction
speed
MPH
gust
MPH
rain 1hr
in
rain 24hr
in
rain mn
in
humidity
%
barometer
mb
20260509145004 73 205 2.0 7.0 0.00 0.00 0.00 47 1011.7
20260509144705 73 210 2.0 6.0 0.00 0.00 0.00 47 1011.7
20260509144405 73 205 3.0 7.0 0.00 0.00 0.00 46 1011.8
20260509144305 72 202 3.0 7.0 0.00 0.00 0.00 46 1011.8
20260509144205 72 198 2.0 7.0 0.00 0.00 0.00 46 1011.8
20260509144105 72 193 2.0 7.0 0.00 0.00 0.00 47 1011.7
20260509144005 72 187 2.0 7.0 0.00 0.00 0.00 48 1011.7
20260509143705 72 189 3.0 7.0 0.00 0.00 0.00 47 1011.7
20260509143605 72 189 2.0 7.0 0.00 0.00 0.00 48 1011.7
20260509143504 72 188 2.0 7.0 0.00 0.00 0.00 48 1011.8
20260509143404 72 189 2.0 7.0 0.00 0.00 0.00 51 1011.8
20260509143304 72 192 2.0 7.0 0.00 0.00 0.00 51 1011.8
20260509143204 71 193 2.0 7.0 0.00 0.00 0.00 50 1011.7
20260509143104 71 196 2.0 7.0 0.00 0.00 0.00 50 1011.7
20260509143004 71 197 2.0 7.0 0.00 0.00 0.00 50 1011.8
20260509142904 71 197 2.0 7.0 0.00 0.00 0.00 49 1011.8
20260509142804 71 200 2.0 7.0 0.00 0.00 0.00 49 1011.7
20260509142704 71 198 2.0 7.0 0.00 0.00 0.00 53 1011.7
20260509142604 71 201 2.0 7.0 0.00 0.00 0.00 53 1011.6
20260509142504 71 200 2.0 7.0 0.00 0.00 0.00 52 1011.6
20260509142405 70 200 2.0 7.0 0.00 0.00 0.00 52 1011.6
20260509142307 70 198 2.0 7.0 0.00 0.00 0.00 51 1011.7
20260509142104 70 195 2.0 7.0 0.00 0.00 0.00 52 1011.7
20260509142004 70 196 2.0 5.0 0.00 0.00 0.00 54 1011.7
20260509141904 70 195 2.0 5.0 0.00 0.00 0.00 53 1011.7
20260509141804 70 191 2.0 5.0 0.00 0.00 0.00 53 1011.8
20260509141704 70 189 2.0 5.0 0.00 0.00 0.00 53 1011.8
20260509141604 70 183 2.0 5.0 0.00 0.00 0.00 54 1011.8
20260509141504 70 185 2.0 5.0 0.00 0.00 0.00 55 1011.8
20260509141405 69 185 2.0 5.0 0.00 0.00 0.00 54 1011.8
20260509141305 69 189 2.0 5.0 0.00 0.00 0.00 55 1011.8
20260509141205 69 192 2.0 5.0 0.00 0.00 0.00 54 1011.8
20260509141105 69 197 2.0 5.0 0.00 0.00 0.00 56 1011.8
20260509141005 69 195 1.0 5.0 0.00 0.00 0.00 56 1011.8
20260509140904 69 196 1.0 5.0 0.00 0.00 0.00 56 1011.8
20260509140805 69 200 1.0 5.0 0.00 0.00 0.00 57 1011.8
20260509140705 68 201 1.0 5.0 0.00 0.00 0.00 56 1011.8
20260509140605 68 202 1.0 5.0 0.00 0.00 0.00 57 1011.8
20260509140504 68 201 1.0 5.0 0.00 0.00 0.00 57 1011.8
20260509140404 68 203 1.0 5.0 0.00 0.00 0.00 57 1011.8
20260509140304 68 202 1.0 5.0 0.00 0.00 0.00 57 1011.8
20260509140104 68 200 1.0 3.0 0.00 0.00 0.00 59 1011.8
20260509140005 68 201 1.0 3.0 0.00 0.00 0.00 60 1011.8
20260509135905 67 202 1.0 3.0 0.00 0.00 0.00 59 1011.8
20260509135805 67 204 1.0 3.0 0.00 0.00 0.00 60 1011.8
20260509135705 67 208 1.0 3.0 0.00 0.00 0.00 60 1011.8
20260509135605 67 210 1.0 4.0 0.00 0.00 0.00 60 1011.8
20260509135505 67 210 1.0 4.0 0.00 0.00 0.00 61 1011.7
20260509135405 67 212 1.0 4.0 0.00 0.00 0.00 61 1011.8
20260509135306 66 214 1.0 4.0 0.00 0.00 0.00 61 1011.8
20260509135204 66 214 1.0 4.0 0.00 0.00 0.00 61 1011.8
20260509135104 66 212 1.0 4.0 0.00 0.00 0.00 62 1011.8
20260509135004 66 213 1.0 4.0 0.00 0.00 0.00 62 1011.8
20260509134904 66 213 1.0 4.0 0.00 0.00 0.00 62 1011.8
20260509134804 66 212 1.0 4.0 0.00 0.00 0.00 61 1011.8
20260509134704 66 208 1.0 4.0 0.00 0.00 0.00 62 1011.8
20260509134604 66 209 1.0 4.0 0.00 0.00 0.00 62 1011.8
20260509134405 65 199 0.0 4.0 0.00 0.00 0.00 63 1011.7
20260509134305 65 187 0.0 3.0 0.00 0.00 0.00 64 1011.7
20260509134204 65 168 0.0 2.0 0.00 0.00 0.00 65 1011.7
20260509134105 65 170 0.0 2.0 0.00 0.00 0.00 66 1011.8
20260509134005 65 168 0.0 1.0 0.00 0.00 0.00 66 1011.8
20260509133905 64 169 0.0 2.0 0.00 0.00 0.00 65 1011.7
20260509133805 64 231 0.0 6.0 0.00 0.00 0.00 65 1011.7
20260509133705 64 238 0.0 6.0 0.00 0.00 0.00 65 1011.7
20260509133605 64 232 1.0 6.0 0.00 0.00 0.00 65 1011.7
20260509133505 64 231 1.0 6.0 0.00 0.00 0.00 65 1011.7
20260509133404 64 232 1.0 6.0 0.00 0.00 0.00 65 1011.7
20260509133304 64 237 1.0 6.0 0.00 0.00 0.00 66 1011.8
20260509133204 64 236 1.0 6.0 0.00 0.00 0.00 66 1011.8
20260509133104 63 238 2.0 6.0 0.00 0.00 0.00 66 1011.8
20260509133004 63 237 2.0 6.0 0.00 0.00 0.00 66 1011.8
20260509132904 63 234 1.0 6.0 0.00 0.00 0.00 65 1011.8
20260509132804 63 228 2.0 5.0 0.00 0.00 0.00 65 1011.8
20260509132704 63 230 2.0 5.0 0.00 0.00 0.00 65 1011.8
20260509132604 63 236 2.0 5.0 0.00 0.00 0.00 66 1011.8
20260509132504 63 237 2.0 5.0 0.00 0.00 0.00 66 1011.8
20260509132404 62 236 1.0 5.0 0.00 0.00 0.00 66 1011.9
20260509132306 62 233 1.0 4.0 0.00 0.00 0.00 67 1011.8
20260509132104 62 231 1.0 3.0 0.00 0.00 0.00 67 1011.9
20260509131905 62 236 1.0 3.0 0.00 0.00 0.00 68 1011.9
20260509131605 62 226 1.0 2.0 0.00 0.00 0.00 69 1011.9
20260509131505 62 225 1.0 2.0 0.00 0.00 0.00 68 1011.9
20260509131405 61 224 1.0 2.0 0.00 0.00 0.00 70 1011.9
20260509131204 61 225 0.0 2.0 0.00 0.00 0.00 69 1011.9
20260509131104 61 225 0.0 2.0 0.00 0.00 0.00 70 1012.0
20260509130904 61 226 0.0 2.0 0.00 0.00 0.00 70 1011.9
20260509130804 61 227 0.0 2.0 0.00 0.00 0.00 70 1012.0
20260509130704 61 229 0.0 1.0 0.00 0.00 0.00 70 1012.0
20260509130604 61 230 0.0 2.0 0.00 0.00 0.00 70 1011.9
20260509130504 61 234 0.0 3.0 0.00 0.00 0.00 71 1011.9
20260509130404 60 238 0.0 3.0 0.00 0.00 0.00 71 1012.0
20260509130304 60 236 0.0 3.0 0.00 0.00 0.00 71 1011.9
20260509130205 60 234 0.0 3.0 0.00 0.00 0.00 71 1011.9
20260509130105 60 232 0.0 3.0 0.00 0.00 0.00 71 1011.9
20260509130005 60 231 0.0 3.0 0.00 0.00 0.00 71 1011.8
20260509125804 60 233 1.0 3.0 0.00 0.00 0.00 71 1011.7
20260509125705 60 230 1.0 3.0 0.00 0.00 0.00 71 1011.7
20260509125605 60 227 1.0 3.0 0.00 0.00 0.00 71 1011.8
20260509125404 59 210 0.0 3.0 0.00 0.00 0.00 72 1011.7
20260509125204 59 202 0.0 3.0 0.00 0.00 0.00 72 1011.7
20260509125104 59 202 0.0 3.0 0.00 0.00 0.00 72 1011.7
20260509125005 59 201 0.0 3.0 0.00 0.00 0.00 72 1011.7
20260509124905 59 201 0.0 3.0 0.00 0.00 0.00 72 1011.7
20260509124805 59 186 0.0 2.0 0.00 0.00 0.00 72 1011.6
20260509124705 59 171 0.0 1.0 0.00 0.00 0.00 72 1011.7
20260509124605 59 171 0.0 1.0 0.00 0.00 0.00 72 1011.6
20260509124505 58 172 0.0 1.0 0.00 0.00 0.00 73 1011.5
20260509124405 58 171 0.0 1.0 0.00 0.00 0.00 73 1011.6
20260509124304 58 171 0.0 1.0 0.00 0.00 0.00 73 1011.6
20260509124204 58 171 0.0 1.0 0.00 0.00 0.00 73 1011.6
20260509124104 58 171 0.0 1.0 0.00 0.00 0.00 73 1011.7
20260509124004 58 169 0.0 1.0 0.00 0.00 0.00 73 1011.7
20260509123904 58 169 0.0 1.0 0.00 0.00 0.00 74 1011.7
20260509123804 58 169 0.0 1.0 0.00 0.00 0.00 74 1011.6
20260509123704 58 169 0.0 1.0 0.00 0.00 0.00 74 1011.6
20260509123404 57 166 0.0 1.0 0.00 0.00 0.00 75 1011.6
20260509123305 57 166 0.0 1.0 0.00 0.00 0.00 75 1011.6
20260509123205 57 166 0.0 1.0 0.00 0.00 0.00 75 1011.6
20260509123105 57 166 0.0 1.0 0.00 0.00 0.00 75 1011.6
20260509123005 57 166 0.0 1.0 0.00 0.00 0.00 75 1011.5
20260509122905 57 166 0.0 1.0 0.00 0.00 0.00 76 1011.5
20260509122804 57 166 0.0 1.0 0.00 0.00 0.00 76 1011.5
20260509122704 56 166 0.0 1.0 0.00 0.00 0.00 75 1011.4
20260509122604 56 165 0.0 1.0 0.00 0.00 0.00 75 1011.4
20260509122306 56 167 0.0 2.0 0.00 0.00 0.00 76 1011.4
20260509122204 56 168 0.0 2.0 0.00 0.00 0.00 76 1011.4
20260509122105 56 168 0.0 2.0 0.00 0.00 0.00 76 1011.4
20260509122004 56 168 0.0 2.0 0.00 0.00 0.00 76 1011.4
20260509121905 56 168 0.0 2.0 0.00 0.00 0.00 76 1011.4
20260509121805 56 168 0.0 2.0 0.00 0.00 0.00 76 1011.3
20260509121704 55 168 0.0 2.0 0.00 0.00 0.00 76 1011.4
20260509121604 55 168 0.0 2.0 0.00 0.00 0.00 76 1011.3
20260509121504 55 169 0.0 2.0 0.00 0.00 0.00 77 1011.3
20260509121404 55 171 0.0 1.0 0.00 0.00 0.00 77 1011.3
20260509121005 54 0 0.0 0.0 0.00 0.00 0.00 78 1011.2
20260509120804 54 0 0.0 0.0 0.00 0.00 0.00 78 1011.2
20260509120704 54 0 0.0 0.0 0.00 0.00 0.00 78 1011.2
20260509120604 54 0 0.0 0.0 0.00 0.00 0.00 78 1011.2
20260509120504 54 0 0.0 0.0 0.00 0.00 0.00 78 1011.2
20260509120404 54 0 0.0 0.0 0.00 0.00 0.00 78 1011.1
20260509120304 54 0 0.0 0.0 0.00 0.00 0.00 78 1011.2
20260509120205 54 0 0.0 0.0 0.00 0.00 0.00 78 1011.2
20260509120104 54 0 0.0 0.0 0.00 0.00 0.00 78 1011.1
20260509120004 54 0 0.0 0.0 0.00 0.00 0.00 78 1011.2
20260509115905 54 0 0.0 0.0 0.00 0.00 0.00 78 1011.1
20260509115805 54 0 0.0 0.0 0.00 0.00 0.00 78 1011.1
20260509115604 54 0 0.0 0.0 0.00 0.00 0.00 79 1011.1
20260509115504 54 0 0.0 0.0 0.00 0.00 0.00 79 1011.1
20260509115404 54 0 0.0 0.0 0.00 0.00 0.00 79 1011.1
20260509115307 54 0 0.0 0.0 0.00 0.00 0.00 79 1011.1
20260509115204 54 168 0.0 1.0 0.00 0.00 0.00 79 1011.1
20260509115104 54 168 0.0 1.0 0.00 0.00 0.00 79 1011.1
20260509115005 53 168 0.0 1.0 0.00 0.00 0.00 79 1011.1
20260509114905 53 168 0.0 1.0 0.00 0.00 0.00 79 1011.1
20260509114805 53 168 0.0 1.0 0.00 0.00 0.00 79 1011.1
20260509114704 53 168 0.0 1.0 0.00 0.00 0.00 79 1011.1
20260509114604 53 168 0.0 1.0 0.00 0.00 0.00 79 1011.1
20260509114504 53 168 0.0 1.0 0.00 0.00 0.00 79 1011.1
20260509114205 53 0 0.0 0.0 0.00 0.00 0.00 79 1011.1
20260509114105 53 0 0.0 0.0 0.00 0.00 0.00 79 1011.0
20260509114005 53 0 0.0 0.0 0.00 0.00 0.00 79 1011.0
20260509113904 53 0 0.0 0.0 0.00 0.00 0.00 79 1011.0
20260509113804 53 0 0.0 0.0 0.00 0.00 0.00 79 1011.0
20260509113604 53 0 0.0 0.0 0.00 0.00 0.00 79 1011.0
20260509113405 53 0 0.0 0.0 0.00 0.00 0.00 79 1011.0
20260509113305 53 0 0.0 0.0 0.00 0.00 0.00 79 1011.0
20260509113104 53 0 0.0 0.0 0.00 0.00 0.00 79 1011.0
20260509113004 53 0 0.0 0.0 0.00 0.00 0.00 79 1010.9
20260509112904 53 0 0.0 0.0 0.00 0.00 0.00 79 1010.9
20260509112804 53 0 0.0 0.0 0.00 0.00 0.00 79 1010.9
20260509112704 53 0 0.0 0.0 0.00 0.00 0.00 79 1010.9
20260509112604 53 0 0.0 0.0 0.00 0.00 0.00 79 1010.9
20260509112505 53 0 0.0 0.0 0.00 0.00 0.00 79 1010.9
20260509112405 53 0 0.0 0.0 0.00 0.00 0.00 79 1010.8
20260509112307 53 0 0.0 0.0 0.00 0.00 0.00 78 1010.8
20260509112205 53 0 0.0 0.0 0.00 0.00 0.00 78 1010.8
20260509112105 53 0 0.0 0.0 0.00 0.00 0.00 78 1010.8
20260509112004 54 0 0.0 0.0 0.00 0.00 0.00 78 1010.8
20260509111904 54 0 0.0 0.0 0.00 0.00 0.00 77 1010.8
20260509111804 54 0 0.0 0.0 0.00 0.00 0.00 77 1010.8
20260509111704 54 168 0.0 1.0 0.00 0.00 0.00 77 1010.7
20260509111604 54 168 0.0 1.0 0.00 0.00 0.00 77 1010.7
20260509111504 54 168 0.0 1.0 0.00 0.00 0.00 77 1010.7
20260509111304 54 168 0.0 1.0 0.00 0.00 0.00 77 1010.7
20260509111205 54 168 0.0 1.0 0.00 0.00 0.00 77 1010.7
20260509111105 54 168 0.0 1.0 0.00 0.00 0.00 77 1010.8
20260509110905 54 168 0.0 1.0 0.00 0.00 0.00 77 1010.8
20260509110805 54 168 0.0 1.0 0.00 0.00 0.00 77 1010.7
20260509110705 54 0 0.0 0.0 0.00 0.00 0.00 77 1010.7
20260509110605 54 0 0.0 0.0 0.00 0.00 0.00 77 1010.7
20260509110504 54 0 0.0 0.0 0.00 0.00 0.00 77 1010.7
20260509110404 54 0 0.0 0.0 0.00 0.00 0.00 77 1010.7
20260509110304 54 0 0.0 0.0 0.00 0.00 0.00 77 1010.8
20260509110204 54 0 0.0 0.0 0.00 0.00 0.00 77 1010.7
20260509110104 54 0 0.0 0.0 0.00 0.00 0.00 77 1010.7
20260509105904 54 0 0.0 0.0 0.00 0.00 0.00 77 1010.8
20260509105805 54 0 0.0 0.0 0.00 0.00 0.00 77 1010.7
20260509105705 54 0 0.0 0.0 0.00 0.00 0.00 77 1010.7
20260509105604 54 0 0.0 0.0 0.00 0.00 0.00 77 1010.8
20260509105504 54 0 0.0 0.0 0.00 0.00 0.00 77 1010.7
20260509105404 54 0 0.0 0.0 0.00 0.00 0.00 77 1010.8
20260509105306 54 0 0.0 0.0 0.00 0.00 0.00 77 1010.7
20260509105204 55 0 0.0 0.0 0.00 0.00 0.00 77 1010.8
20260509105005 54 0 0.0 0.0 0.00 0.00 0.00 77 1010.7
20260509104905 55 169 0.0 1.0 0.00 0.00 0.00 77 1010.7
20260509104804 54 169 0.0 1.0 0.00 0.00 0.00 76 1010.7
20260509104704 55 169 0.0 1.0 0.00 0.00 0.00 76 1010.7
20260509104604 55 169 0.0 1.0 0.00 0.00 0.00 76 1010.8
20260509104504 55 167 0.0 1.0 0.00 0.00 0.00 76 1010.8
20260509104404 55 165 0.0 1.0 0.00 0.00 0.00 76 1010.8
20260509104304 55 163 0.0 1.0 0.00 0.00 0.00 76 1010.8
20260509104108 55 162 0.0 1.0 0.00 0.00 0.00 76 1010.9
20260509104005 55 162 0.0 1.0 0.00 0.00 0.00 76 1010.9
20260509103804 55 158 0.0 1.0 0.00 0.00 0.00 76 1010.9
20260509103604 55 158 0.0 1.0 0.00 0.00 0.00 75 1010.9
20260509103504 55 158 0.0 1.0 0.00 0.00 0.00 75 1010.9
20260509103404 55 173 0.0 2.0 0.00 0.00 0.00 75 1010.9
20260509103304 55 208 0.0 3.0 0.00 0.00 0.00 75 1010.9
20260509103204 56 216 0.0 4.0 0.00 0.00 0.00 75 1010.8
20260509103104 56 211 0.0 4.0 0.00 0.00 0.00 74 1010.9
20260509103005 56 211 0.0 4.0 0.00 0.00 0.00 75 1010.9
20260509102805 56 206 0.0 4.0 0.00 0.00 0.00 75 1010.9
20260509102604 56 208 0.0 4.0 0.00 0.00 0.00 75 1010.9
20260509102504 56 203 1.0 4.0 0.00 0.00 0.00 75 1010.9
20260509102404 56 196 0.0 4.0 0.00 0.00 0.00 75 1010.9
20260509102306 55 188 0.0 4.0 0.00 0.00 0.00 75 1010.8
20260509102204 55 164 0.0 2.0 0.00 0.00 0.00 75 1010.9
20260509102104 55 163 0.0 2.0 0.00 0.00 0.00 75 1010.8
20260509102005 55 163 0.0 2.0 0.00 0.00 0.00 75 1010.8
20260509101905 55 164 0.0 2.0 0.00 0.00 0.00 75 1010.8
20260509101704 55 164 0.0 2.0 0.00 0.00 0.00 75 1010.8
20260509101504 55 164 0.0 2.0 0.00 0.00 0.00 75 1010.8
20260509101404 55 165 0.0 1.0 0.00 0.00 0.00 75 1010.9
20260509101304 55 165 0.0 1.0 0.00 0.00 0.00 75 1010.9
20260509101204 55 164 0.0 1.0 0.00 0.00 0.00 75 1010.9
20260509101105 55 166 0.0 1.0 0.00 0.00 0.00 75 1010.9
20260509101004 55 165 0.0 1.0 0.00 0.00 0.00 75 1010.9
20260509100905 55 164 0.0 1.0 0.00 0.00 0.00 74 1010.9
20260509100805 55 163 0.0 1.0 0.00 0.00 0.00 74 1010.9
20260509100705 55 162 0.0 1.0 0.00 0.00 0.00 74 1010.9
20260509100604 55 161 0.0 1.0 0.00 0.00 0.00 74 1010.9
20260509100404 55 161 0.0 1.0 0.00 0.00 0.00 74 1010.9
20260509100304 55 161 0.0 1.0 0.00 0.00 0.00 74 1010.9
20260509100205 55 161 0.0 1.0 0.00 0.00 0.00 74 1011.0
20260509100104 55 161 0.0 1.0 0.00 0.00 0.00 74 1011.0
20260509095905 55 161 0.0 1.0 0.00 0.00 0.00 74 1011.0
20260509095804 55 161 0.0 1.0 0.00 0.00 0.00 74 1011.1
20260509095704 55 161 0.0 1.0 0.00 0.00 0.00 74 1011.1
20260509095604 56 161 0.0 2.0 0.00 0.00 0.00 74 1011.1
20260509095306 56 161 0.0 2.0 0.00 0.00 0.00 73 1011.1
20260509095205 56 161 0.0 2.0 0.00 0.00 0.00 73 1011.1
20260509095104 56 161 0.0 2.0 0.00 0.00 0.00 73 1011.1
20260509094904 56 161 0.0 2.0 0.00 0.00 0.00 73 1011.1
20260509094804 56 162 0.0 2.0 0.00 0.00 0.00 73 1011.0
20260509094704 56 163 0.0 2.0 0.00 0.00 0.00 73 1011.0
20260509094504 56 165 0.0 2.0 0.00 0.00 0.00 72 1011.0
20260509094404 56 165 0.0 2.0 0.00 0.00 0.00 72 1011.0
20260509094204 56 167 0.0 2.0 0.00 0.00 0.00 72 1011.0
20260509094104 56 170 0.0 2.0 0.00 0.00 0.00 72 1011.0
20260509094005 56 173 1.0 2.0 0.00 0.00 0.00 72 1011.0
20260509093704 56 176 1.0 4.0 0.00 0.00 0.00 71 1011.1
20260509093604 56 176 1.0 4.0 0.00 0.00 0.00 71 1011.1
20260509093504 56 178 1.0 4.0 0.00 0.00 0.00 71 1011.0
20260509093404 56 178 1.0 4.0 0.00 0.00 0.00 71 1011.0
20260509093304 56 179 1.0 4.0 0.00 0.00 0.00 71 1011.0
20260509093104 56 178 1.0 4.0 0.00 0.00 0.00 71 1011.0
20260509093005 56 182 1.0 4.0 0.00 0.00 0.00 71 1011.0
20260509092504 57 187 1.0 4.0 0.00 0.00 0.00 70 1011.0
20260509092404 57 189 1.0 4.0 0.00 0.00 0.00 70 1010.9
20260509092306 57 189 1.0 4.0 0.00 0.00 0.00 70 1010.9
20260509092104 57 190 1.0 4.0 0.00 0.00 0.00 70 1010.9
20260509092005 57 189 1.0 4.0 0.00 0.00 0.00 71 1010.9
20260509091905 57 188 1.0 4.0 0.00 0.00 0.00 71 1010.9
20260509091805 57 188 1.0 4.0 0.00 0.00 0.00 71 1010.9
20260509091604 56 184 1.0 4.0 0.00 0.00 0.00 71 1011.0
20260509091504 56 186 0.0 4.0 0.00 0.00 0.00 71 1010.9
20260509091404 56 183 0.0 3.0 0.00 0.00 0.00 71 1011.0
20260509091304 56 181 0.0 3.0 0.00 0.00 0.00 70 1011.0
20260509091204 56 178 0.0 3.0 0.00 0.00 0.00 70 1011.0
20260509091104 56 176 0.0 3.0 0.00 0.00 0.00 70 1011.0
20260509090904 57 173 1.0 3.0 0.00 0.00 0.00 70 1011.1
20260509090804 57 181 1.0 5.0 0.00 0.00 0.00 70 1011.1
20260509090704 57 176 1.0 5.0 0.00 0.00 0.00 70 1011.1
20260509090604 57 175 1.0 5.0 0.00 0.00 0.00 70 1011.1
20260509090504 57 178 1.0 5.0 0.00 0.00 0.00 70 1011.1
20260509090304 57 178 1.0 5.0 0.00 0.00 0.00 70 1011.1
20260509090205 57 179 1.0 5.0 0.00 0.00 0.00 69 1011.1
20260509090104 57 186 1.0 5.0 0.00 0.00 0.00 69 1011.1
20260509090005 57 188 1.0 5.0 0.00 0.00 0.00 69 1011.1
20260509085904 57 190 1.0 5.0 0.00 0.00 0.00 69 1011.1
20260509085804 57 189 1.0 5.0 0.00 0.00 0.00 69 1011.1
20260509085705 57 193 1.0 5.0 0.00 0.00 0.00 69 1011.1
20260509085604 57 197 1.0 5.0 0.00 0.00 0.00 69 1011.1
20260509085504 57 200 1.0 5.0 0.00 0.00 0.00 70 1011.1
20260509085404 57 206 1.0 5.0 0.00 0.00 0.00 70 1011.1
20260509085306 57 208 0.0 5.0 0.00 0.00 0.00 70 1011.1
20260509085204 57 214 0.0 5.0 0.00 0.00 0.00 70 1011.1
20260509085104 57 209 0.0 3.0 0.00 0.00 0.00 70 1011.1
20260509084904 57 216 0.0 2.0 0.00 0.00 0.00 70 1011.1
20260509084804 57 216 0.0 2.0 0.00 0.00 0.00 70 1011.1
20260509084705 57 216 0.0 2.0 0.00 0.00 0.00 70 1011.1
20260509084605 57 207 0.0 2.0 0.00 0.00 0.00 71 1011.1
20260509084504 57 174 0.0 2.0 0.00 0.00 0.00 71 1011.1
20260509084404 57 172 0.0 2.0 0.00 0.00 0.00 71 1011.1
20260509084304 57 178 0.0 3.0 0.00 0.00 0.00 70 1011.1
20260509084204 57 177 1.0 3.0 0.00 0.00 0.00 70 1011.0
20260509084104 58 176 1.0 3.0 0.00 0.00 0.00 70 1011.0
20260509084004 58 179 1.0 3.0 0.00 0.00 0.00 70 1011.1
20260509083804 58 181 1.0 3.0 0.00 0.00 0.00 69 1011.0
20260509083604 58 181 1.0 3.0 0.00 0.00 0.00 69 1011.0
20260509083505 58 181 1.0 3.0 0.00 0.00 0.00 70 1011.0
20260509083404 58 182 1.0 3.0 0.00 0.00 0.00 70 1011.0
20260509083305 58 182 1.0 4.0 0.00 0.00 0.00 70 1011.0
20260509083205 58 185 1.0 4.0 0.00 0.00 0.00 70 1011.0
20260509083105 58 188 1.0 6.0 0.00 0.00 0.00 70 1011.1
20260509083004 58 188 1.0 6.0 0.00 0.00 0.00 70 1011.1
20260509082905 58 187 1.0 6.0 0.00 0.00 0.00 70 1011.1
20260509082805 58 189 1.0 6.0 0.00 0.00 0.00 70 1011.1
20260509082705 58 190 2.0 6.0 0.00 0.00 0.00 70 1011.0
20260509082605 58 193 2.0 6.0 0.00 0.00 0.00 70 1011.1
20260509082404 58 194 2.0 6.0 0.00 0.00 0.00 70 1011.1
20260509082204 57 194 2.0 6.0 0.00 0.00 0.00 70 1011.2
20260509082104 57 195 2.0 5.0 0.00 0.00 0.00 70 1011.1
20260509082004 57 194 2.0 5.0 0.00 0.00 0.00 70 1011.2
20260509081904 57 193 2.0 5.0 0.00 0.00 0.00 70 1011.2
20260509081704 57 190 2.0 5.0 0.00 0.00 0.00 70 1011.1
20260509081604 57 188 2.0 5.0 0.00 0.00 0.00 70 1011.1
20260509081504 57 186 1.0 5.0 0.00 0.00 0.00 70 1011.1
20260509081304 57 179 1.0 5.0 0.00 0.00 0.00 70 1011.1
20260509081104 57 172 1.0 4.0 0.00 0.00 0.00 70 1011.2
20260509080904 57 170 1.0 3.0 0.00 0.00 0.00 70 1011.1
20260509080605 57 165 1.0 3.0 0.00 0.00 0.00 70 1011.0
20260509080504 57 166 1.0 3.0 0.00 0.00 0.00 70 1011.1
20260509080404 57 167 1.0 3.0 0.00 0.00 0.00 69 1011.1
20260509080304 57 167 1.0 3.0 0.00 0.00 0.00 69 1011.1
20260509080204 57 168 1.0 3.0 0.00 0.00 0.00 69 1011.1
20260509080104 57 168 1.0 3.0 0.00 0.00 0.00 69 1011.2
20260509075904 57 167 1.0 3.0 0.00 0.00 0.00 69 1011.3
20260509075804 57 168 1.0 3.0 0.00 0.00 0.00 69 1011.2
20260509075704 57 169 1.0 3.0 0.00 0.00 0.00 69 1011.2
20260509075604 57 169 1.0 4.0 0.00 0.00 0.00 69 1011.2
20260509075504 57 172 1.0 5.0 0.00 0.00 0.00 69 1011.2
20260509075404 57 174 1.0 5.0 0.00 0.00 0.00 69 1011.2
20260509075306 57 176 1.0 5.0 0.00 0.00 0.00 68 1011.2
20260509075105 57 176 2.0 5.0 0.00 0.00 0.00 68 1011.2
20260509075005 57 175 2.0 5.0 0.00 0.00 0.00 68 1011.3
20260509074905 57 174 2.0 5.0 0.00 0.00 0.00 68 1011.2
20260509074804 57 174 1.0 5.0 0.00 0.00 0.00 68 1011.3
20260509074705 57 172 2.0 5.0 0.00 0.00 0.00 68 1011.3
20260509074605 57 172 2.0 5.0 0.00 0.00 0.00 68 1011.3
20260509074404 56 169 2.0 5.0 0.00 0.00 0.00 68 1011.1
20260509074304 56 167 2.0 5.0 0.00 0.00 0.00 68 1011.1
20260509074204 56 170 2.0 5.0 0.00 0.00 0.00 68 1011.2
20260509074104 56 170 2.0 5.0 0.00 0.00 0.00 68 1011.1
20260509074004 56 172 2.0 5.0 0.00 0.00 0.00 68 1011.1
20260509073904 56 173 2.0 5.0 0.00 0.00 0.00 68 1011.1
20260509073804 56 173 2.0 5.0 0.00 0.00 0.00 68 1011.2
20260509073604 56 172 2.0 5.0 0.00 0.00 0.00 68 1011.2
20260509073504 56 173 2.0 5.0 0.00 0.00 0.00 68 1011.3
20260509073404 56 174 2.0 5.0 0.00 0.00 0.00 68 1011.2
20260509073305 56 174 2.0 5.0 0.00 0.00 0.00 68 1011.2
20260509073204 56 171 2.0 5.0 0.00 0.00 0.00 68 1011.2
20260509073104 56 171 2.0 5.0 0.00 0.00 0.00 69 1011.2
20260509073004 56 169 1.0 5.0 0.00 0.00 0.00 69 1011.2
20260509072905 56 169 1.0 5.0 0.00 0.00 0.00 69 1011.2
20260509072804 56 169 1.0 5.0 0.00 0.00 0.00 69 1011.2
20260509072704 56 170 1.0 5.0 0.00 0.00 0.00 69 1011.1
20260509072604 56 171 0.0 5.0 0.00 0.00 0.00 69 1011.1
20260509072504 56 167 0.0 5.0 0.00 0.00 0.00 69 1011.1
20260509072306 56 154 0.0 2.0 0.00 0.00 0.00 69 1011.1
20260509072204 56 150 0.0 2.0 0.00 0.00 0.00 69 1011.1
20260509072104 56 149 0.0 2.0 0.00 0.00 0.00 69 1011.1
20260509072004 56 149 0.0 2.0 0.00 0.00 0.00 69 1011.1
20260509071804 56 149 0.0 2.0 0.00 0.00 0.00 69 1011.0
20260509071605 56 148 0.0 1.0 0.00 0.00 0.00 70 1011.1
20260509071504 56 148 0.0 1.0 0.00 0.00 0.00 70 1011.1
20260509071304 55 148 0.0 1.0 0.00 0.00 0.00 70 1011.1
20260509071204 55 148 0.0 1.0 0.00 0.00 0.00 70 1011.1
20260509070904 55 0 0.0 0.0 0.00 0.00 0.00 70 1011.0
20260509070804 55 0 0.0 0.0 0.00 0.00 0.00 70 1011.1
20260509070704 55 142 0.0 1.0 0.00 0.00 0.00 70 1011.1
20260509070604 55 142 0.0 1.0 0.00 0.00 0.00 70 1011.1
20260509070504 55 142 0.0 1.0 0.00 0.00 0.00 71 1011.2
20260509070404 55 142 0.0 1.0 0.00 0.00 0.00 71 1011.1
20260509070304 55 142 0.0 1.0 0.00 0.00 0.00 71 1011.1
20260509070204 55 142 0.0 1.0 0.00 0.00 0.00 71 1011.1
20260509070104 55 142 0.0 1.0 0.00 0.00 0.00 71 1011.2
20260509065805 55 142 0.0 1.0 0.00 0.00 0.00 71 1011.3
20260509065604 55 142 0.0 1.0 0.00 0.00 0.00 71 1011.3
20260509065404 55 142 0.0 1.0 0.00 0.00 0.00 71 1011.3
20260509065306 55 142 0.0 1.0 0.00 0.00 0.00 71 1011.2
20260509065204 55 142 0.0 1.0 0.00 0.00 0.00 71 1011.2
20260509065104 55 142 0.0 1.0 0.00 0.00 0.00 71 1011.2
20260509065004 55 143 0.0 1.0 0.00 0.00 0.00 71 1011.2
20260509064905 55 142 0.0 1.0 0.00 0.00 0.00 72 1011.2
20260509064804 55 142 0.0 1.0 0.00 0.00 0.00 72 1011.2
20260509064704 55 141 0.0 1.0 0.00 0.00 0.00 72 1011.2
20260509064604 55 141 0.0 1.0 0.00 0.00 0.00 72 1011.2
20260509064504 55 141 0.0 1.0 0.00 0.00 0.00 73 1011.2
20260509064404 55 141 0.0 1.0 0.00 0.00 0.00 73 1011.2
20260509064304 55 141 0.0 1.0 0.00 0.00 0.00 73 1011.2
20260509064204 55 140 0.0 1.0 0.00 0.00 0.00 74 1011.2
20260509064104 55 140 0.0 1.0 0.00 0.00 0.00 75 1011.2
20260509064005 55 136 0.0 1.0 0.00 0.00 0.00 75 1011.2
20260509063904 55 134 0.0 1.0 0.00 0.00 0.00 75 1011.2
20260509063805 55 134 0.0 1.0 0.00 0.00 0.00 75 1011.2
20260509063704 55 133 0.0 1.0 0.00 0.00 0.00 75 1011.3
20260509063604 55 128 0.0 1.0 0.00 0.00 0.00 74 1011.2
20260509063504 55 127 0.0 1.0 0.00 0.00 0.00 74 1011.2
20260509063104 54 121 0.0 1.0 0.00 0.00 0.00 74 1011.2
20260509063004 54 104 0.0 1.0 0.00 0.00 0.00 75 1011.1
20260509062904 54 104 0.0 1.0 0.00 0.00 0.00 74 1011.1
20260509062804 54 104 0.0 1.0 0.00 0.00 0.00 74 1011.1
20260509062704 54 104 0.0 1.0 0.00 0.00 0.00 74 1011.1
20260509062604 54 104 0.0 1.0 0.00 0.00 0.00 74 1011.2
20260509062504 54 104 0.0 1.0 0.00 0.00 0.00 73 1011.1
20260509062306 54 104 0.0 1.0 0.00 0.00 0.00 74 1011.1
20260509062205 54 104 0.0 1.0 0.00 0.00 0.00 74 1011.1
20260509062105 54 104 0.0 1.0 0.00 0.00 0.00 74 1011.1
20260509062005 54 104 0.0 1.0 0.00 0.00 0.00 75 1011.1
20260509061904 54 104 0.0 1.0 0.00 0.00 0.00 75 1011.1
20260509061804 54 104 0.0 1.0 0.00 0.00 0.00 75 1011.1
20260509061704 54 104 0.0 1.0 0.00 0.00 0.00 76 1011.2
20260509061604 54 104 0.0 1.0 0.00 0.00 0.00 76 1011.2
20260509061504 54 104 0.0 1.0 0.00 0.00 0.00 76 1011.2
20260509061404 54 104 0.0 1.0 0.00 0.00 0.00 76 1011.2
20260509061204 54 105 0.0 1.0 0.00 0.00 0.00 76 1011.2
20260509061105 54 105 0.0 1.0 0.00 0.00 0.00 76 1011.2
20260509061005 54 105 0.0 1.0 0.00 0.00 0.00 76 1011.2
20260509060904 54 105 0.0 1.0 0.00 0.00 0.00 76 1011.2
20260509060804 54 0 0.0 0.0 0.00 0.00 0.00 77 1011.2
20260509060704 54 0 0.0 0.0 0.00 0.00 0.00 77 1011.2
20260509060604 54 0 0.0 0.0 0.00 0.00 0.00 77 1011.2
20260509060504 54 0 0.0 0.0 0.00 0.00 0.00 77 1011.2
20260509060404 54 0 0.0 0.0 0.00 0.00 0.00 77 1011.2
20260509060304 54 0 0.0 0.0 0.00 0.00 0.00 77 1011.2
20260509060204 54 0 0.0 0.0 0.00 0.00 0.00 76 1011.2
20260509060005 54 0 0.0 0.0 0.00 0.00 0.00 75 1011.1
20260509055805 54 0 0.0 0.0 0.00 0.00 0.00 73 1011.2
20260509055704 54 0 0.0 0.0 0.00 0.00 0.00 73 1011.1
20260509055604 54 0 0.0 0.0 0.00 0.00 0.00 73 1011.1
20260509055504 54 0 0.0 0.0 0.00 0.00 0.00 72 1011.2
20260509055404 54 0 0.0 0.0 0.00 0.00 0.00 72 1011.2
20260509055306 54 0 0.0 0.0 0.00 0.00 0.00 72 1011.2
20260509055204 54 0 0.0 0.0 0.00 0.00 0.00 72 1011.2
20260509055105 55 0 0.0 0.0 0.00 0.00 0.00 72 1011.2
20260509055004 55 0 0.0 0.0 0.00 0.00 0.00 72 1011.2
20260509054904 55 0 0.0 0.0 0.00 0.00 0.00 72 1011.1
20260509054803 55 0 0.0 0.0 0.00 0.00 0.00 73 1011.1
20260509054404 55 0 0.0 0.0 0.00 0.00 0.00 73 1011.2
20260509054304 55 0 0.0 0.0 0.00 0.00 0.00 72 1011.2
20260509054204 55 0 0.0 0.0 0.00 0.00 0.00 72 1011.2
20260509054104 55 0 0.0 0.0 0.00 0.00 0.00 72 1011.3
20260509053904 55 0 0.0 0.0 0.00 0.00 0.00 72 1011.3
20260509053704 55 0 0.0 0.0 0.00 0.00 0.00 72 1011.3
20260509053604 55 0 0.0 0.0 0.00 0.00 0.00 72 1011.3
20260509053404 55 0 0.0 0.0 0.00 0.00 0.00 72 1011.3
20260509053304 55 0 0.0 0.0 0.00 0.00 0.00 72 1011.3
20260509053204 55 0 0.0 0.0 0.00 0.00 0.00 72 1011.3
20260509053104 55 0 0.0 0.0 0.00 0.00 0.00 72 1011.3
20260509053004 55 0 0.0 0.0 0.00 0.00 0.00 72 1011.3
20260509052904 55 0 0.0 0.0 0.00 0.00 0.00 73 1011.3
20260509052605 55 0 0.0 0.0 0.00 0.00 0.00 72 1011.3
20260509052504 55 0 0.0 0.0 0.00 0.00 0.00 73 1011.3
20260509052404 55 0 0.0 0.0 0.00 0.00 0.00 73 1011.2
20260509052307 55 0 0.0 0.0 0.00 0.00 0.00 73 1011.2
20260509052204 55 0 0.0 0.0 0.00 0.00 0.00 73 1011.3
20260509052104 55 0 0.0 0.0 0.00 0.00 0.00 73 1011.3
20260509052004 55 0 0.0 0.0 0.00 0.00 0.00 73 1011.3
20260509051904 55 0 0.0 0.0 0.00 0.00 0.00 74 1011.3
20260509051804 55 0 0.0 0.0 0.00 0.00 0.00 74 1011.2
20260509051704 55 0 0.0 0.0 0.00 0.00 0.00 74 1011.2
20260509051604 55 0 0.0 0.0 0.00 0.00 0.00 74 1011.2
20260509051505 55 0 0.0 0.0 0.00 0.00 0.00 75 1011.2
20260509051405 55 0 0.0 0.0 0.00 0.00 0.00 75 1011.2
20260509051304 55 0 0.0 0.0 0.00 0.00 0.00 75 1011.2
20260509051204 55 0 0.0 0.0 0.00 0.00 0.00 75 1011.2
20260509051104 55 0 0.0 0.0 0.00 0.00 0.00 75 1011.2
20260509051004 55 0 0.0 0.0 0.00 0.00 0.00 75 1011.2
20260509050904 55 0 0.0 0.0 0.00 0.00 0.00 75 1011.2
20260509050804 55 0 0.0 0.0 0.00 0.00 0.00 75 1011.2
20260509050704 55 0 0.0 0.0 0.00 0.00 0.00 75 1011.2
20260509050604 55 0 0.0 0.0 0.00 0.00 0.00 75 1011.2
20260509050504 55 0 0.0 0.0 0.00 0.00 0.00 75 1011.3
20260509050404 55 0 0.0 0.0 0.00 0.00 0.00 75 1011.3
20260509050304 55 0 0.0 0.0 0.00 0.00 0.00 75 1011.3
20260509050204 56 0 0.0 0.0 0.00 0.00 0.00 75 1011.2
20260509050104 56 0 0.0 0.0 0.00 0.00 0.00 75 1011.2
20260509050006 56 0 0.0 0.0 0.00 0.00 0.00 74 1011.3
20260509045904 56 0 0.0 0.0 0.00 0.00 0.00 73 1011.3
20260509045804 56 0 0.0 0.0 0.00 0.00 0.00 74 1011.3
20260509045704 56 0 0.0 0.0 0.00 0.00 0.00 74 1011.3
20260509045604 56 0 0.0 0.0 0.00 0.00 0.00 74 1011.3
20260509045504 56 0 0.0 0.0 0.00 0.00 0.00 74 1011.3
20260509045404 56 0 0.0 0.0 0.00 0.00 0.00 74 1011.3
20260509045306 56 0 0.0 0.0 0.00 0.00 0.00 74 1011.3
20260509045204 56 0 0.0 0.0 0.00 0.00 0.00 73 1011.3
20260509045104 56 0 0.0 0.0 0.00 0.00 0.00 73 1011.3
20260509045004 56 0 0.0 0.0 0.00 0.00 0.00 73 1011.3
20260509044904 56 0 0.0 0.0 0.00 0.00 0.00 73 1011.3
20260509044804 56 0 0.0 0.0 0.00 0.00 0.00 73 1011.3
20260509044704 56 0 0.0 0.0 0.00 0.00 0.00 73 1011.3
20260509044604 56 0 0.0 0.0 0.00 0.00 0.00 73 1011.3
20260509044504 56 0 0.0 0.0 0.00 0.00 0.00 73 1011.3
20260509044404 56 0 0.0 0.0 0.00 0.00 0.00 74 1011.3
20260509044304 56 0 0.0 0.0 0.00 0.00 0.00 74 1011.3
20260509044204 56 0 0.0 0.0 0.00 0.00 0.00 74 1011.3
20260509044104 56 0 0.0 0.0 0.00 0.00 0.00 74 1011.3
20260509044004 56 0 0.0 0.0 0.00 0.00 0.00 73 1011.3
20260509043804 56 0 0.0 0.0 0.00 0.00 0.00 74 1011.4
20260509043704 56 0 0.0 0.0 0.00 0.00 0.00 74 1011.4
20260509043604 56 0 0.0 0.0 0.00 0.00 0.00 74 1011.4
20260509043504 56 0 0.0 0.0 0.00 0.00 0.00 74 1011.3
20260509043204 56 0 0.0 0.0 0.00 0.00 0.00 74 1011.4
20260509043104 56 0 0.0 0.0 0.00 0.00 0.00 75 1011.3
20260509043004 56 0 0.0 0.0 0.00 0.00 0.00 75 1011.4
20260509042904 56 0 0.0 0.0 0.00 0.00 0.00 75 1011.3
20260509042804 56 0 0.0 0.0 0.00 0.00 0.00 75 1011.3
20260509042704 56 0 0.0 0.0 0.00 0.00 0.00 76 1011.3
20260509042504 56 0 0.0 0.0 0.00 0.00 0.00 75 1011.3
20260509042404 56 0 0.0 0.0 0.00 0.00 0.00 75 1011.3
20260509042306 56 0 0.0 0.0 0.00 0.00 0.00 75 1011.3
20260509042104 56 0 0.0 0.0 0.00 0.00 0.00 75 1011.3
20260509042004 56 0 0.0 0.0 0.00 0.00 0.00 75 1011.3
20260509041904 56 0 0.0 0.0 0.00 0.00 0.00 75 1011.3
20260509041804 56 0 0.0 0.0 0.00 0.00 0.00 75 1011.3
20260509041704 56 0 0.0 0.0 0.00 0.00 0.00 75 1011.3
20260509041604 56 0 0.0 0.0 0.00 0.00 0.00 75 1011.3
20260509041504 56 0 0.0 0.0 0.00 0.00 0.00 75 1011.3
20260509041305 56 0 0.0 0.0 0.00 0.00 0.00 75 1011.3
20260509041204 56 0 0.0 0.0 0.00 0.00 0.00 75 1011.4
20260509041104 56 0 0.0 0.0 0.00 0.00 0.00 75 1011.3
20260509041004 56 0 0.0 0.0 0.00 0.00 0.00 75 1011.4
20260509040904 56 0 0.0 0.0 0.00 0.00 0.00 75 1011.3
20260509040804 56 0 0.0 0.0 0.00 0.00 0.00 75 1011.3
20260509040705 56 0 0.0 0.0 0.00 0.00 0.00 75 1011.3
20260509040604 56 0 0.0 0.0 0.00 0.00 0.00 75 1011.3
20260509040305 56 0 0.0 0.0 0.00 0.00 0.00 75 1011.3
20260509040204 56 0 0.0 0.0 0.00 0.00 0.00 75 1011.3
20260509040104 56 0 0.0 0.0 0.00 0.00 0.00 74 1011.3
20260509035904 57 0 0.0 0.0 0.00 0.00 0.00 74 1011.3
20260509035804 57 0 0.0 0.0 0.00 0.00 0.00 73 1011.3
20260509035704 57 0 0.0 0.0 0.00 0.00 0.00 73 1011.2
20260509035505 57 0 0.0 0.0 0.00 0.00 0.00 72 1011.3
20260509035405 57 0 0.0 0.0 0.00 0.00 0.00 72 1011.3
20260509035306 57 0 0.0 0.0 0.00 0.00 0.00 73 1011.2
20260509035104 57 0 0.0 0.0 0.00 0.00 0.00 76 1011.3
20260509034904 58 0 0.0 0.0 0.00 0.00 0.00 79 1011.2
20260509034805 58 0 0.0 0.0 0.00 0.00 0.00 80 1011.2
20260509034605 58 0 0.0 0.0 0.00 0.00 0.00 76 1011.2
20260509034404 58 0 0.0 0.0 0.00 0.00 0.00 75 1011.2
20260509034304 58 0 0.0 0.0 0.00 0.00 0.00 74 1011.2
20260509034204 57 0 0.0 0.0 0.00 0.00 0.00 72 1011.2
20260509034105 58 0 0.0 0.0 0.00 0.00 0.00 72 1011.2
20260509033805 57 0 0.0 0.0 0.00 0.00 0.00 71 1011.2
20260509033704 57 0 0.0 0.0 0.00 0.00 0.00 71 1011.1
20260509033604 57 0 0.0 0.0 0.00 0.00 0.00 70 1011.1
20260509033504 58 0 0.0 0.0 0.00 0.00 0.00 71 1011.1
20260509033404 58 0 0.0 0.0 0.00 0.00 0.00 71 1011.1
20260509033304 58 0 0.0 0.0 0.00 0.00 0.00 71 1011.1
20260509033005 58 0 0.0 0.0 0.00 0.00 0.00 70 1011.1
20260509032904 58 0 0.0 0.0 0.00 0.00 0.00 70 1011.0
20260509032804 58 0 0.0 0.0 0.00 0.00 0.00 70 1011.0
20260509032704 58 0 0.0 0.0 0.00 0.00 0.00 70 1011.0
20260509032505 58 0 0.0 0.0 0.00 0.00 0.00 69 1011.0
20260509032405 58 0 0.0 0.0 0.00 0.00 0.00 69 1011.0
20260509032306 58 0 0.0 0.0 0.00 0.00 0.00 69 1010.9
20260509032105 58 0 0.0 0.0 0.00 0.00 0.00 69 1010.9
20260509032005 58 0 0.0 0.0 0.00 0.00 0.00 69 1010.9
20260509031905 58 0 0.0 0.0 0.00 0.00 0.00 69 1010.9
20260509031704 58 0 0.0 0.0 0.00 0.00 0.00 68 1010.8
20260509031604 58 0 0.0 0.0 0.00 0.00 0.00 68 1010.8
20260509031504 58 0 0.0 0.0 0.00 0.00 0.00 68 1010.8
20260509031404 58 0 0.0 0.0 0.00 0.00 0.00 68 1010.8
20260509031205 58 0 0.0 0.0 0.00 0.00 0.00 67 1010.8
20260509031004 58 0 0.0 0.0 0.00 0.00 0.00 67 1010.7
20260509030904 58 0 0.0 0.0 0.00 0.00 0.00 67 1010.7
20260509030804 59 0 0.0 0.0 0.00 0.00 0.00 67 1010.7
20260509030704 59 0 0.0 0.0 0.00 0.00 0.00 67 1010.6
20260509030604 59 0 0.0 0.0 0.00 0.00 0.00 67 1010.6
20260509030304 59 0 0.0 0.0 0.00 0.00 0.00 67 1010.6
20260509030204 59 0 0.0 0.0 0.00 0.00 0.00 67 1010.6
20260509030104 59 0 0.0 0.0 0.00 0.00 0.00 67 1010.6
20260509025904 59 0 0.0 0.0 0.00 0.00 0.00 67 1010.6
20260509025805 59 0 0.0 0.0 0.00 0.00 0.00 67 1010.7
20260509025704 59 0 0.0 0.0 0.00 0.00 0.00 67 1010.7
20260509025605 59 0 0.0 0.0 0.00 0.00 0.00 67 1010.7
20260509025505 60 0 0.0 0.0 0.00 0.00 0.00 67 1010.6
20260509025405 60 0 0.0 0.0 0.00 0.00 0.00 67 1010.6
20260509025307 60 0 0.0 0.0 0.00 0.00 0.00 66 1010.6
20260509025205 60 0 0.0 0.0 0.00 0.00 0.00 66 1010.7
20260509025105 60 0 0.0 0.0 0.00 0.00 0.00 67 1010.7
20260509025004 60 0 0.0 0.0 0.00 0.00 0.00 67 1010.6
20260509024904 60 0 0.0 0.0 0.00 0.00 0.00 67 1010.7
20260509024804 60 0 0.0 0.0 0.00 0.00 0.00 67 1010.7
20260509024604 60 0 0.0 0.0 0.00 0.00 0.00 68 1010.6
20260509024505 60 0 0.0 0.0 0.00 0.00 0.00 67 1010.6
20260509024405 60 0 0.0 0.0 0.00 0.00 0.00 67 1010.6
20260509024305 60 0 0.0 0.0 0.00 0.00 0.00 67 1010.7
20260509024205 60 0 0.0 0.0 0.00 0.00 0.00 68 1010.6
20260509024004 60 0 0.0 0.0 0.00 0.00 0.00 66 1010.6
20260509023804 60 0 0.0 0.0 0.00 0.00 0.00 66 1010.5
20260509023704 60 0 0.0 0.0 0.00 0.00 0.00 66 1010.5
20260509023605 60 0 0.0 0.0 0.00 0.00 0.00 68 1010.6
20260509023405 60 0 0.0 0.0 0.00 0.00 0.00 68 1010.5
20260509023305 60 0 0.0 0.0 0.00 0.00 0.00 67 1010.5
20260509023205 61 0 0.0 0.0 0.00 0.00 0.00 67 1010.4
20260509023008 61 0 0.0 0.0 0.00 0.00 0.00 65 1010.4
20260509022805 61 0 0.0 0.0 0.00 0.00 0.00 64 1010.4
20260509022705 61 0 0.0 0.0 0.00 0.00 0.00 64 1010.3
20260509022504 61 0 0.0 0.0 0.00 0.00 0.00 63 1010.3
20260509022404 62 0 0.0 0.0 0.00 0.00 0.00 61 1010.3
20260509022306 62 0 0.0 0.0 0.00 0.00 0.00 61 1010.3
20260509022104 62 0 0.0 0.0 0.00 0.00 0.00 58 1010.3
20260509022004 62 0 0.0 0.0 0.00 0.00 0.00 58 1010.3
20260509021905 62 0 0.0 0.0 0.00 0.00 0.00 58 1010.3
20260509021704 62 0 0.0 0.0 0.00 0.00 0.00 56 1010.3
20260509021604 63 0 0.0 0.0 0.00 0.00 0.00 56 1010.3
20260509021504 63 0 0.0 0.0 0.00 0.00 0.00 56 1010.2
20260509021404 63 0 0.0 0.0 0.00 0.00 0.00 56 1010.2
20260509021304 63 0 0.0 0.0 0.00 0.00 0.00 56 1010.3
20260509021204 63 0 0.0 0.0 0.00 0.00 0.00 55 1010.3
20260509021105 63 0 0.0 0.0 0.00 0.00 0.00 55 1010.2
20260509021005 63 0 0.0 0.0 0.00 0.00 0.00 55 1010.2
20260509020905 64 0 0.0 0.0 0.00 0.00 0.00 55 1010.2
20260509020704 64 0 0.0 0.0 0.00 0.00 0.00 55 1010.2
20260509020604 64 0 0.0 0.0 0.00 0.00 0.00 54 1010.2
20260509020504 64 0 0.0 0.0 0.00 0.00 0.00 54 1010.2
20260509020404 64 0 0.0 0.0 0.00 0.00 0.00 54 1010.2
20260509020105 64 0 0.0 0.0 0.00 0.00 0.00 53 1010.2
20260509020005 64 0 0.0 0.0 0.00 0.00 0.00 53 1010.2
20260509015905 65 0 0.0 0.0 0.00 0.00 0.00 53 1010.2
20260509015805 65 0 0.0 0.0 0.00 0.00 0.00 53 1010.2
20260509015704 65 0 0.0 0.0 0.00 0.00 0.00 53 1010.3
20260509015604 65 0 0.0 0.0 0.00 0.00 0.00 53 1010.2
20260509015504 65 0 0.0 0.0 0.00 0.00 0.00 55 1010.2
20260509015404 65 0 0.0 0.0 0.00 0.00 0.00 56 1010.2
20260509015306 65 0 0.0 0.0 0.00 0.00 0.00 55 1010.2
20260509015205 66 0 0.0 0.0 0.00 0.00 0.00 54 1010.2
20260509015104 66 0 0.0 0.0 0.00 0.00 0.00 55 1010.2
20260509015005 66 0 0.0 0.0 0.00 0.00 0.00 55 1010.3
20260509014904 66 0 0.0 0.0 0.00 0.00 0.00 52 1010.2
20260509014805 66 0 0.0 0.0 0.00 0.00 0.00 50 1010.2
20260509014705 67 0 0.0 0.0 0.00 0.00 0.00 50 1010.2
20260509014605 67 0 0.0 0.0 0.00 0.00 0.00 50 1010.1
20260509014505 67 0 0.0 0.0 0.00 0.00 0.00 50 1010.2
20260509014404 67 0 0.0 0.0 0.00 0.00 0.00 50 1010.2
20260509014304 67 0 0.0 0.0 0.00 0.00 0.00 48 1010.2
20260509014204 68 0 0.0 0.0 0.00 0.00 0.00 48 1010.2
20260509014104 68 0 0.0 0.0 0.00 0.00 0.00 47 1010.1
20260509014004 68 0 0.0 0.0 0.00 0.00 0.00 47 1010.1
20260509013905 68 0 0.0 0.0 0.00 0.00 0.00 47 1010.1
20260509013804 68 0 0.0 0.0 0.00 0.00 0.00 46 1010.2
20260509013605 68 0 0.0 0.0 0.00 0.00 0.00 46 1010.1
20260509013504 69 0 0.0 0.0 0.00 0.00 0.00 45 1010.1
20260509013304 69 62 0.0 1.0 0.00 0.00 0.00 45 1010.1
20260509013204 69 62 0.0 1.0 0.00 0.00 0.00 44 1010.1
20260509013105 69 62 0.0 1.0 0.00 0.00 0.00 44 1010.1
20260509013004 69 62 0.0 1.0 0.00 0.00 0.00 44 1010.1
20260509012805 70 61 0.0 1.0 0.00 0.00 0.00 44 1010.0
20260509012604 70 61 0.0 1.0 0.00 0.00 0.00 43 1010.0
20260509012504 70 48 0.0 3.0 0.00 0.00 0.00 43 1010.0
20260509012404 70 46 0.0 3.0 0.00 0.00 0.00 43 1010.0
20260509012307 70 44 0.0 3.0 0.00 0.00 0.00 43 1009.9
20260509012204 70 26 1.0 3.0 0.00 0.00 0.00 43 1009.9
20260509011905 71 9 1.0 3.0 0.00 0.00 0.00 43 1009.9
20260509011804 71 5 1.0 3.0 0.00 0.00 0.00 42 1009.9
20260509011705 71 5 2.0 4.0 0.00 0.00 0.00 42 1009.8
20260509011505 71 351 2.0 5.0 0.00 0.00 0.00 42 1009.8
20260509011405 71 349 2.0 5.0 0.00 0.00 0.00 42 1009.8
20260509011305 71 347 2.0 5.0 0.00 0.00 0.00 42 1009.8
20260509011204 71 350 2.0 5.0 0.00 0.00 0.00 42 1009.8
20260509011104 71 354 2.0 5.0 0.00 0.00 0.00 41 1009.8
20260509011004 72 354 2.0 5.0 0.00 0.00 0.00 41 1009.8
20260509010804 72 356 2.0 5.0 0.00 0.00 0.00 41 1009.8
20260509010704 72 358 2.0 5.0 0.00 0.00 0.00 40 1009.8
20260509010504 72 6 2.0 4.0 0.00 0.00 0.00 41 1009.8
20260509010405 72 8 2.0 4.0 0.00 0.00 0.00 40 1009.8
20260509010304 72 11 2.0 4.0 0.00 0.00 0.00 40 1009.8
20260509010105 73 14 2.0 4.0 0.00 0.00 0.00 40 1009.7
20260509010005 73 9 2.0 4.0 0.00 0.00 0.00 39 1009.8
20260509005905 73 3 2.0 4.0 0.00 0.00 0.00 39 1009.8
20260509005805 73 2 2.0 5.0 0.00 0.00 0.00 39 1009.8
20260509005705 73 357 2.0 5.0 0.00 0.00 0.00 39 1009.8
20260509005604 73 356 2.0 5.0 0.00 0.00 0.00 39 1009.8
20260509005504 74 351 2.0 5.0 0.00 0.00 0.00 39 1009.8
20260509005404 74 346 2.0 6.0 0.00 0.00 0.00 39 1009.8
20260509005306 74 345 3.0 8.0 0.00 0.00 0.00 39 1009.8
20260509005104 74 348 3.0 8.0 0.00 0.00 0.00 38 1009.8
20260509005004 74 345 3.0 8.0 0.00 0.00 0.00 39 1009.8
20260509004904 74 350 3.0 8.0 0.00 0.00 0.00 38 1009.8
20260509004804 74 351 3.0 8.0 0.00 0.00 0.00 38 1009.8
20260509004704 74 348 3.0 8.0 0.00 0.00 0.00 39 1009.8
20260509004604 74 345 4.0 12.0 0.00 0.00 0.00 38 1009.7
20260509004404 74 348 4.0 12.0 0.00 0.00 0.00 38 1009.7
20260509004304 74 348 4.0 12.0 0.00 0.00 0.00 38 1009.7
20260509004205 74 343 4.0 12.0 0.00 0.00 0.00 38 1009.7
20260509004104 74 341 5.0 12.0 0.00 0.00 0.00 39 1009.7
20260509004005 74 341 5.0 12.0 0.00 0.00 0.00 39 1009.7
20260509003905 74 336 5.0 12.0 0.00 0.00 0.00 38 1009.7
20260509003805 74 335 5.0 12.0 0.00 0.00 0.00 38 1009.7
20260509003705 74 335 5.0 12.0 0.00 0.00 0.00 37 1009.7
20260509003504 74 331 5.0 11.0 0.00 0.00 0.00 38 1009.7
20260509003404 74 332 5.0 11.0 0.00 0.00 0.00 38 1009.7
20260509003304 74 329 5.0 11.0 0.00 0.00 0.00 38 1009.6
20260509003204 74 329 5.0 11.0 0.00 0.00 0.00 38 1009.6
20260509003104 74 331 5.0 11.0 0.00 0.00 0.00 38 1009.6
20260509003004 75 331 5.0 11.0 0.00 0.00 0.00 38 1009.6
20260509002905 75 330 5.0 11.0 0.00 0.00 0.00 38 1009.6
20260509002804 75 331 4.0 11.0 0.00 0.00 0.00 38 1009.6
20260509002704 75 329 4.0 11.0 0.00 0.00 0.00 38 1009.6
20260509002505 75 340 4.0 9.0 0.00 0.00 0.00 39 1009.5
20260509002404 75 342 5.0 10.0 0.00 0.00 0.00 38 1009.5
20260509002204 75 342 4.0 10.0 0.00 0.00 0.00 38 1009.5
20260509002005 75 344 5.0 10.0 0.00 0.00 0.00 38 1009.5
20260509001905 75 357 5.0 13.0 0.00 0.00 0.00 38 1009.4
20260509001805 75 358 5.0 13.0 0.00 0.00 0.00 38 1009.4
20260509001705 75 6 5.0 13.0 0.00 0.00 0.00 38 1009.4
20260509001605 75 5 5.0 13.0 0.00 0.00 0.00 38 1009.4
20260509001505 75 358 5.0 13.0 0.00 0.00 0.00 38 1009.3
20260509001404 75 1 5.0 13.0 0.00 0.00 0.00 38 1009.3
20260509001304 75 6 5.0 13.0 0.00 0.00 0.00 38 1009.3
20260509001204 75 8 5.0 13.0 0.00 0.00 0.00 38 1009.3
20260509001104 75 5 5.0 13.0 0.00 0.00 0.00 37 1009.3
20260509001004 75 5 5.0 13.0 0.00 0.00 0.00 37 1009.3
20260509000904 75 355 5.0 10.0 0.00 0.00 0.00 37 1009.3
20260509000804 76 351 5.0 10.0 0.00 0.00 0.00 37 1009.3
20260509000704 76 346 4.0 10.0 0.00 0.00 0.00 38 1009.3
20260509000604 76 345 4.0 10.0 0.00 0.00 0.00 38 1009.3
20260509000504 76 344 5.0 13.0 0.00 0.00 0.00 37 1009.3
20260509000404 76 344 5.0 13.0 0.00 0.00 0.00 38 1009.3
20260509000304 76 343 5.0 13.0 0.00 0.00 0.00 38 1009.2
20260509000204 76 345 4.0 13.0 0.00 0.00 0.00 38 1009.3
20260509000104 76 347 4.0 13.0 0.00 0.00 0.00 38 1009.2
20260509000005 76 348 4.0 13.0 0.00 0.00 0.00 38 1009.3
20260508235904 76 351 4.0 13.0 0.00 0.00 0.00 38 1009.2
20260508235705 76 350 4.0 13.0 0.00 0.00 0.00 37 1009.2
20260508235605 76 349 5.0 13.0 0.00 0.00 0.00 38 1009.2
20260508235505 76 352 4.0 10.0 0.00 0.00 0.00 38 1009.3
20260508235404 76 351 4.0 10.0 0.00 0.00 0.00 37 1009.2
20260508235104 76 343 4.0 10.0 0.00 0.00 0.00 38 1009.2
20260508235004 76 340 5.0 10.0 0.00 0.00 0.00 37 1009.2
20260508234904 76 334 5.0 10.0 0.00 0.00 0.00 37 1009.2
20260508234804 76 332 5.0 11.0 0.00 0.00 0.00 38 1009.2
20260508234704 76 334 5.0 12.0 0.00 0.00 0.00 39 1009.2
20260508234505 76 331 5.0 12.0 0.00 0.00 0.00 39 1009.2
20260508234405 76 329 5.0 12.0 0.00 0.00 0.00 39 1009.2
20260508234305 76 332 5.0 12.0 0.00 0.00 0.00 39 1009.1
20260508234205 76 331 5.0 12.0 0.00 0.00 0.00 39 1009.2
20260508234105 76 333 5.0 12.0 0.00 0.00 0.00 38 1009.2
20260508234005 76 336 5.0 12.0 0.00 0.00 0.00 38 1009.2
20260508233905 76 340 5.0 12.0 0.00 0.00 0.00 37 1009.1
20260508233704 76 344 4.0 11.0 0.00 0.00 0.00 38 1009.2
20260508233604 76 347 4.0 11.0 0.00 0.00 0.00 38 1009.2
20260508233304 76 350 5.0 12.0 0.00 0.00 0.00 37 1009.1
20260508233104 76 350 5.0 12.0 0.00 0.00 0.00 38 1009.2
20260508233005 76 345 5.0 14.0 0.00 0.00 0.00 38 1009.2
20260508232805 76 345 5.0 14.0 0.00 0.00 0.00 37 1009.1
20260508232705 76 346 5.0 14.0 0.00 0.00 0.00 37 1009.1
20260508232605 76 346 5.0 14.0 0.00 0.00 0.00 37 1009.1
20260508232504 76 344 5.0 14.0 0.00 0.00 0.00 37 1009.1
20260508232404 76 347 5.0 14.0 0.00 0.00 0.00 37 1009.0
20260508232307 76 349 5.0 14.0 0.00 0.00 0.00 38 1009.1
20260508232204 76 349 5.0 14.0 0.00 0.00 0.00 38 1009.1
20260508232104 76 349 4.0 14.0 0.00 0.00 0.00 38 1009.0
20260508231904 77 3 4.0 11.0 0.00 0.00 0.00 37 1009.0
20260508231804 77 1 4.0 12.0 0.00 0.00 0.00 37 1009.0
20260508231704 77 359 5.0 12.0 0.00 0.00 0.00 37 1009.0
20260508231604 77 357 5.0 12.0 0.00 0.00 0.00 38 1009.0
20260508231504 77 354 5.0 12.0 0.00 0.00 0.00 38 1008.9
20260508231404 77 353 5.0 12.0 0.00 0.00 0.00 38 1009.0
20260508231304 76 350 5.0 12.0 0.00 0.00 0.00 38 1009.0
20260508231204 76 350 5.0 12.0 0.00 0.00 0.00 38 1009.0
20260508231104 76 354 5.0 12.0 0.00 0.00 0.00 37 1008.9
20260508231004 76 356 5.0 12.0 0.00 0.00 0.00 36 1008.9
20260508230804 77 359 5.0 12.0 0.00 0.00 0.00 36 1009.0
20260508230704 77 354 5.0 12.0 0.00 0.00 0.00 37 1008.9
20260508230505 76 350 5.0 14.0 0.00 0.00 0.00 38 1009.0
20260508230405 76 345 6.0 15.0 0.00 0.00 0.00 38 1008.9
20260508230205 76 340 7.0 15.0 0.00 0.00 0.00 38 1008.9
20260508230104 76 337 7.0 15.0 0.00 0.00 0.00 38 1008.9
20260508230005 76 332 7.0 15.0 0.00 0.00 0.00 38 1008.9
20260508225905 76 331 7.0 15.0 0.00 0.00 0.00 38 1008.9
20260508225804 76 329 7.0 15.0 0.00 0.00 0.00 38 1008.9
20260508225704 76 331 7.0 15.0 0.00 0.00 0.00 38 1008.9
20260508225604 76 334 6.0 15.0 0.00 0.00 0.00 38 1008.9
20260508225504 76 335 6.0 15.0 0.00 0.00 0.00 38 1008.9
20260508225404 76 338 6.0 11.0 0.00 0.00 0.00 38 1008.9
20260508225306 77 340 6.0 11.0 0.00 0.00 0.00 38 1008.9
20260508225204 77 344 6.0 11.0 0.00 0.00 0.00 37 1008.9
20260508225104 77 343 6.0 11.0 0.00 0.00 0.00 38 1008.9
20260508225004 77 347 6.0 11.0 0.00 0.00 0.00 37 1008.9
20260508224804 77 351 7.0 12.0 0.00 0.00 0.00 38 1008.8
20260508224504 76 343 6.0 13.0 0.00 0.00 0.00 38 1008.8
20260508224404 76 339 6.0 13.0 0.00 0.00 0.00 38 1008.8
20260508224304 76 337 7.0 13.0 0.00 0.00 0.00 38 1008.9
20260508224204 76 336 7.0 13.0 0.00 0.00 0.00 38 1008.8
20260508224104 76 336 6.0 13.0 0.00 0.00 0.00 37 1008.8
20260508224004 76 335 6.0 13.0 0.00 0.00 0.00 36 1008.8
20260508223904 77 328 6.0 13.0 0.00 0.00 0.00 37 1008.8
20260508223804 77 328 6.0 13.0 0.00 0.00 0.00 37 1008.8
20260508223705 77 329 6.0 13.0 0.00 0.00 0.00 38 1008.7
20260508223604 77 330 6.0 13.0 0.00 0.00 0.00 38 1008.8
20260508223504 77 328 6.0 13.0 0.00 0.00 0.00 38 1008.8
20260508223305 77 332 6.0 13.0 0.00 0.00 0.00 38 1008.7
20260508223105 77 331 6.0 13.0 0.00 0.00 0.00 38 1008.8
20260508223004 77 329 6.0 13.0 0.00 0.00 0.00 38 1008.8
20260508222904 77 328 5.0 13.0 0.00 0.00 0.00 38 1008.8
20260508222704 77 325 6.0 12.0 0.00 0.00 0.00 40 1008.8
20260508222604 77 324 6.0 15.0 0.00 0.00 0.00 39 1008.8
20260508222504 77 325 6.0 15.0 0.00 0.00 0.00 39 1008.8
20260508222404 77 328 6.0 15.0 0.00 0.00 0.00 41 1008.8
20260508222204 77 329 6.0 15.0 0.00 0.00 0.00 41 1008.7
20260508222005 77 332 6.0 15.0 0.00 0.00 0.00 42 1008.7
20260508221805 77 337 6.0 15.0 0.00 0.00 0.00 41 1008.7
20260508221704 77 339 5.0 15.0 0.00 0.00 0.00 41 1008.8
20260508221604 77 339 5.0 11.0 0.00 0.00 0.00 41 1008.7
20260508221504 77 340 5.0 11.0 0.00 0.00 0.00 42 1008.7
20260508221404 77 335 5.0 12.0 0.00 0.00 0.00 41 1008.7
20260508221304 77 335 6.0 12.0 0.00 0.00 0.00 41 1008.7
20260508221204 77 331 6.0 13.0 0.00 0.00 0.00 42 1008.7
20260508221104 77 328 5.0 13.0 0.00 0.00 0.00 41 1008.6
20260508221004 77 330 5.0 13.0 0.00 0.00 0.00 43 1008.7
20260508220904 77 335 5.0 13.0 0.00 0.00 0.00 43 1008.7
20260508220804 77 338 6.0 13.0 0.00 0.00 0.00 42 1008.7
20260508220704 77 340 6.0 13.0 0.00 0.00 0.00 42 1008.6
20260508220604 77 342 6.0 13.0 0.00 0.00 0.00 41 1008.6
20260508220504 77 343 6.0 13.0 0.00 0.00 0.00 42 1008.6
20260508220404 77 346 6.0 13.0 0.00 0.00 0.00 42 1008.7
20260508220305 77 343 6.0 15.0 0.00 0.00 0.00 42 1008.6
20260508220204 77 348 6.0 15.0 0.00 0.00 0.00 43 1008.6
20260508220105 76 347 6.0 15.0 0.00 0.00 0.00 44 1008.6
20260508220005 76 346 7.0 15.0 0.00 0.00 0.00 43 1008.6
20260508215905 76 343 7.0 15.0 0.00 0.00 0.00 43 1008.6
20260508215805 76 344 7.0 15.0 0.00 0.00 0.00 44 1008.6
20260508215705 77 344 7.0 15.0 0.00 0.00 0.00 43 1008.6
20260508215504 77 340 8.0 15.0 0.00 0.00 0.00 43 1008.6
20260508215404 77 338 7.0 15.0 0.00 0.00 0.00 43 1008.6
20260508215306 77 340 7.0 15.0 0.00 0.00 0.00 43 1008.6
20260508215204 77 338 7.0 15.0 0.00 0.00 0.00 42 1008.6
20260508215104 77 338 7.0 15.0 0.00 0.00 0.00 42 1008.5
20260508215004 77 339 6.0 15.0 0.00 0.00 0.00 42 1008.5
20260508214904 78 342 6.0 15.0 0.00 0.00 0.00 42 1008.5
20260508214804 78 339 5.0 14.0 0.00 0.00 0.00 41 1008.5
20260508214704 78 339 5.0 13.0 0.00 0.00 0.00 41 1008.4
20260508214604 78 345 5.0 13.0 0.00 0.00 0.00 41 1008.4
20260508214504 78 345 4.0 10.0 0.00 0.00 0.00 40 1008.4
20260508214404 78 351 4.0 10.0 0.00 0.00 0.00 40 1008.4
20260508214304 78 354 4.0 10.0 0.00 0.00 0.00 39 1008.3
20260508214204 78 355 4.0 10.0 0.00 0.00 0.00 39 1008.4
20260508214104 78 349 5.0 12.0 0.00 0.00 0.00 39 1008.4
20260508214004 78 343 5.0 12.0 0.00 0.00 0.00 39 1008.4
20260508213904 78 339 5.0 12.0 0.00 0.00 0.00 40 1008.4
20260508213704 78 336 5.0 12.0 0.00 0.00 0.00 40 1008.4
20260508213604 78 335 5.0 12.0 0.00 0.00 0.00 39 1008.3
20260508213504 78 334 5.0 12.0 0.00 0.00 0.00 39 1008.4
20260508213405 78 331 6.0 12.0 0.00 0.00 0.00 40 1008.4
20260508213305 78 328 6.0 12.0 0.00 0.00 0.00 40 1008.5
20260508213205 78 326 6.0 12.0 0.00 0.00 0.00 39 1008.4
20260508213105 78 330 6.0 11.0 0.00 0.00 0.00 40 1008.4
20260508212905 78 334 5.0 11.0 0.00 0.00 0.00 39 1008.4
20260508212804 78 335 6.0 11.0 0.00 0.00 0.00 40 1008.4
20260508212604 78 334 5.0 10.0 0.00 0.00 0.00 41 1008.4
20260508212504 78 338 5.0 10.0 0.00 0.00 0.00 41 1008.4
20260508212306 77 346 5.0 10.0 0.00 0.00 0.00 41 1008.4
20260508212204 77 347 5.0 10.0 0.00 0.00 0.00 40 1008.4
20260508212104 77 349 5.0 10.0 0.00 0.00 0.00 41 1008.5
20260508212004 77 350 4.0 10.0 0.00 0.00 0.00 40 1008.5
20260508211904 77 351 4.0 10.0 0.00 0.00 0.00 41 1008.6
20260508211804 77 348 4.0 10.0 0.00 0.00 0.00 41 1008.6
20260508211705 77 347 4.0 10.0 0.00 0.00 0.00 41 1008.6
20260508211604 77 345 4.0 10.0 0.00 0.00 0.00 41 1008.6
20260508211505 77 339 4.0 7.0 0.00 0.00 0.00 41 1008.6
20260508211204 76 332 4.0 8.0 0.00 0.00 0.00 41 1008.6
20260508211106 76 331 4.0 8.0 0.00 0.00 0.00 41 1008.6
20260508211005 76 332 4.0 8.0 0.00 0.00 0.00 40 1008.7
20260508210905 76 331 5.0 8.0 0.00 0.00 0.00 40 1008.7
20260508210804 77 332 4.0 8.0 0.00 0.00 0.00 39 1008.7
20260508210704 77 337 4.0 8.0 0.00 0.00 0.00 39 1008.7
20260508210604 77 341 4.0 8.0 0.00 0.00 0.00 39 1008.7
20260508210504 77 345 4.0 8.0 0.00 0.00 0.00 39 1008.7
20260508210404 77 354 3.0 8.0 0.00 0.00 0.00 41 1008.7
20260508210304 77 358 3.0 8.0 0.00 0.00 0.00 40 1008.7
20260508210204 77 357 3.0 8.0 0.00 0.00 0.00 41 1008.8
20260508210104 77 357 3.0 7.0 0.00 0.00 0.00 41 1008.8
20260508210004 76 353 3.0 7.0 0.00 0.00 0.00 41 1008.8
20260508205904 76 355 2.0 7.0 0.00 0.00 0.00 41 1008.8
20260508205704 76 346 3.0 6.0 0.00 0.00 0.00 42 1008.8
20260508205604 76 344 3.0 6.0 0.00 0.00 0.00 42 1008.8
20260508205504 76 341 3.0 6.0 0.00 0.00 0.00 43 1008.8
20260508205306 76 331 3.0 7.0 0.00 0.00 0.00 44 1008.8
20260508205204 76 334 3.0 7.0 0.00 0.00 0.00 44 1008.8
20260508205104 76 339 3.0 7.0 0.00 0.00 0.00 44 1008.8
20260508204904 76 345 3.0 7.0 0.00 0.00 0.00 43 1008.8
20260508204804 76 348 3.0 8.0 0.00 0.00 0.00 43 1008.8
20260508204705 76 350 3.0 8.0 0.00 0.00 0.00 43 1008.8
20260508204604 76 348 3.0 8.0 0.00 0.00 0.00 42 1008.8
20260508204505 76 346 3.0 8.0 0.00 0.00 0.00 42 1008.8
20260508204405 76 346 3.0 8.0 0.00 0.00 0.00 44 1008.9
20260508204305 76 340 3.0 8.0 0.00 0.00 0.00 44 1008.9
20260508204205 76 337 3.0 8.0 0.00 0.00 0.00 43 1008.9
20260508204105 76 335 3.0 8.0 0.00 0.00 0.00 42 1008.9
20260508204005 76 334 3.0 8.0 0.00 0.00 0.00 43 1009.0
20260508203804 76 323 4.0 10.0 0.00 0.00 0.00 43 1009.0
20260508203704 76 320 4.0 10.0 0.00 0.00 0.00 42 1009.0
20260508203604 76 323 5.0 10.0 0.00 0.00 0.00 43 1009.0
20260508203504 76 321 5.0 11.0 0.00 0.00 0.00 43 1009.0
20260508203404 76 322 5.0 11.0 0.00 0.00 0.00 42 1009.0
20260508203304 76 325 5.0 11.0 0.00 0.00 0.00 42 1009.0
20260508203204 76 321 5.0 11.0 0.00 0.00 0.00 42 1009.0
20260508203104 76 319 6.0 11.0 0.00 0.00 0.00 41 1009.0
20260508202904 76 312 6.0 11.0 0.00 0.00 0.00 40 1009.0
20260508202804 76 313 5.0 11.0 0.00 0.00 0.00 41 1008.9
20260508202704 77 314 5.0 11.0 0.00 0.00 0.00 41 1008.9
20260508202604 77 307 4.0 11.0 0.00 0.00 0.00 40 1008.9
20260508202504 77 302 4.0 11.0 0.00 0.00 0.00 41 1008.9
20260508202405 77 297 4.0 11.0 0.00 0.00 0.00 41 1008.9
20260508202307 77 288 4.0 11.0 0.00 0.00 0.00 42 1008.9
20260508202205 77 287 4.0 11.0 0.00 0.00 0.00 40 1008.9
20260508202105 77 276 3.0 10.0 0.00 0.00 0.00 43 1009.0
20260508202005 77 270 3.0 10.0 0.00 0.00 0.00 44 1009.0
20260508201905 77 272 3.0 10.0 0.00 0.00 0.00 45 1008.9
20260508201705 77 259 2.0 6.0 0.00 0.00 0.00 44 1008.8
20260508201505 77 265 2.0 5.0 0.00 0.00 0.00 44 1008.9
20260508201204 76 273 2.0 5.0 0.00 0.00 0.00 44 1008.9
20260508201104 76 275 2.0 5.0 0.00 0.00 0.00 45 1009.0
20260508201004 76 284 2.0 5.0 0.00 0.00 0.00 44 1009.0
20260508200904 76 295 2.0 6.0 0.00 0.00 0.00 44 1008.9
20260508200804 76 306 2.0 6.0 0.00 0.00 0.00 46 1009.1
20260508200604 76 313 2.0 6.0 0.00 0.00 0.00 46 1009.1
20260508200504 76 320 2.0 6.0 0.00 0.00 0.00 46 1009.2
20260508200404 76 321 2.0 6.0 0.00 0.00 0.00 47 1009.2
20260508200304 76 317 2.0 6.0 0.00 0.00 0.00 46 1009.2
20260508200204 76 316 2.0 6.0 0.00 0.00 0.00 46 1009.3
20260508200004 75 322 2.0 6.0 0.00 0.00 0.00 45 1009.2
20260508195904 75 310 2.0 5.0 0.00 0.00 0.00 46 1009.2
20260508195804 75 297 2.0 5.0 0.00 0.00 0.00 46 1009.3
20260508195704 75 290 2.0 5.0 0.00 0.00 0.00 47 1009.3
20260508195604 75 283 2.0 5.0 0.00 0.00 0.00 46 1009.3
20260508195504 75 263 2.0 5.0 0.00 0.00 0.00 47 1009.3
20260508195404 75 251 2.0 4.0 0.00 0.00 0.00 47 1009.3
20260508195204 75 234 2.0 4.0 0.00 0.00 0.00 47 1009.4
20260508195004 75 235 2.0 7.0 0.00 0.00 0.00 47 1009.4
20260508194904 75 229 2.0 7.0 0.00 0.00 0.00 48 1009.5
20260508194804 75 221 2.0 7.0 0.00 0.00 0.00 46 1009.5
20260508194704 74 217 2.0 7.0 0.00 0.00 0.00 46 1009.5
20260508194504 74 215 2.0 7.0 0.00 0.00 0.00 47 1009.5
20260508194404 74 218 2.0 7.0 0.00 0.00 0.00 47 1009.5
20260508194304 74 223 2.0 7.0 0.00 0.00 0.00 48 1009.5
20260508194104 74 222 1.0 7.0 0.00 0.00 0.00 47 1009.5
20260508194004 74 214 1.0 4.0 0.00 0.00 0.00 47 1009.5
20260508193904 74 211 1.0 4.0 0.00 0.00 0.00 48 1009.6
20260508193804 74 219 1.0 4.0 0.00 0.00 0.00 48 1009.6
20260508193705 73 224 1.0 3.0 0.00 0.00 0.00 49 1009.6
20260508193604 73 225 1.0 3.0 0.00 0.00 0.00 49 1009.7
20260508193504 73 225 2.0 4.0 0.00 0.00 0.00 48 1009.6
20260508193404 73 223 1.0 4.0 0.00 0.00 0.00 48 1009.7
20260508193304 73 219 1.0 4.0 0.00 0.00 0.00 49 1009.8
20260508193204 73 217 1.0 4.0 0.00 0.00 0.00 48 1009.8
20260508193104 73 216 1.0 4.0 0.00 0.00 0.00 48 1009.8
20260508193004 73 215 1.0 4.0 0.00 0.00 0.00 48 1009.7
20260508192904 73 213 1.0 4.0 0.00 0.00 0.00 48 1009.7
20260508192804 73 217 1.0 4.0 0.00 0.00 0.00 48 1009.7
20260508192704 73 227 1.0 4.0 0.00 0.00 0.00 47 1009.7
20260508192504 73 240 1.0 4.0 0.00 0.00 0.00 48 1009.7
20260508192405 73 248 1.0 3.0 0.00 0.00 0.00 49 1009.6
20260508192306 73 242 1.0 3.0 0.00 0.00 0.00 49 1009.6
20260508192204 73 237 1.0 3.0 0.00 0.00 0.00 48 1009.6
20260508192105 73 237 1.0 3.0 0.00 0.00 0.00 48 1009.5
20260508192005 73 237 1.0 3.0 0.00 0.00 0.00 47 1009.4
20260508191904 73 234 2.0 3.0 0.00 0.00 0.00 48 1009.5
20260508191804 73 224 2.0 4.0 0.00 0.00 0.00 48 1009.4
20260508191704 73 221 2.0 4.0 0.00 0.00 0.00 47 1009.3
20260508191504 73 213 2.0 4.0 0.00 0.00 0.00 48 1009.3
20260508191404 73 235 2.0 6.0 0.00 0.00 0.00 49 1009.3
20260508191304 73 263 2.0 7.0 0.00 0.00 0.00 49 1009.3
20260508191205 73 273 2.0 7.0 0.00 0.00 0.00 49 1009.4
20260508191115 73 274 2.0 7.0 0.00 0.00 0.00 49 1009.4
20260508191005 73 280 2.0 7.0 0.00 0.00 0.00 48 1009.4
20260508190905 73 282 2.0 7.0 0.00 0.00 0.00 46 1009.5
20260508190805 73 283 2.0 7.0 0.00 0.00 0.00 47 1009.4
20260508190705 73 282 2.0 7.0 0.00 0.00 0.00 48 1009.5
20260508190604 73 279 3.0 7.0 0.00 0.00 0.00 49 1009.5
20260508190504 72 286 2.0 7.0 0.00 0.00 0.00 48 1009.4
20260508190404 72 288 2.0 7.0 0.00 0.00 0.00 48 1009.5
20260508190305 72 282 2.0 5.0 0.00 0.00 0.00 51 1009.5
20260508190205 72 274 2.0 5.0 0.00 0.00 0.00 49 1009.4
20260508190104 72 272 2.0 5.0 0.00 0.00 0.00 49 1009.5
20260508190004 72 266 3.0 5.0 0.00 0.00 0.00 51 1009.5
20260508185904 72 258 3.0 5.0 0.00 0.00 0.00 50 1009.5
20260508185704 72 267 2.0 5.0 0.00 0.00 0.00 50 1009.4
20260508185604 72 273 2.0 5.0 0.00 0.00 0.00 50 1009.5
20260508185504 72 268 2.0 5.0 0.00 0.00 0.00 51 1009.5
20260508185404 71 259 2.0 5.0 0.00 0.00 0.00 50 1009.5
20260508185306 71 258 2.0 5.0 0.00 0.00 0.00 52 1009.6
20260508184904 71 254 2.0 4.0 0.00 0.00 0.00 51 1009.6
20260508184805 71 255 2.0 4.0 0.00 0.00 0.00 51 1009.6
20260508184705 71 245 2.0 5.0 0.00 0.00 0.00 53 1009.6
20260508184605 71 246 2.0 5.0 0.00 0.00 0.00 53 1009.7
20260508184505 70 239 2.0 5.0 0.00 0.00 0.00 54 1009.7
20260508184404 70 234 2.0 5.0 0.00 0.00 0.00 52 1009.8
20260508184304 70 232 2.0 5.0 0.00 0.00 0.00 54 1009.8
20260508184204 70 238 2.0 5.0 0.00 0.00 0.00 53 1009.8
20260508184104 70 240 2.0 5.0 0.00 0.00 0.00 54 1009.8
20260508184004 70 242 2.0 5.0 0.00 0.00 0.00 54 1009.8
20260508183904 70 242 3.0 6.0 0.00 0.00 0.00 53 1009.8
20260508183804 70 242 3.0 7.0 0.00 0.00 0.00 53 1009.9
20260508183704 70 241 3.0 7.0 0.00 0.00 0.00 55 1010.0
20260508183604 70 239 3.0 7.0 0.00 0.00 0.00 54 1010.0
20260508183504 70 240 3.0 7.0 0.00 0.00 0.00 54 1010.1
20260508183404 70 240 3.0 7.0 0.00 0.00 0.00 54 1010.0
20260508183304 70 241 2.0 7.0 0.00 0.00 0.00 56 1010.0
20260508183204 70 237 2.0 7.0 0.00 0.00 0.00 55 1010.1
20260508183104 70 238 3.0 7.0 0.00 0.00 0.00 54 1010.0
20260508183004 70 239 3.0 7.0 0.00 0.00 0.00 54 1010.1
20260508182904 70 237 2.0 7.0 0.00 0.00 0.00 55 1010.2
20260508182705 70 244 2.0 7.0 0.00 0.00 0.00 56 1010.2
20260508182605 70 248 2.0 7.0 0.00 0.00 0.00 56 1010.2
20260508182505 70 250 2.0 5.0 0.00 0.00 0.00 56 1010.2
20260508182405 70 250 2.0 6.0 0.00 0.00 0.00 57 1010.2
20260508182306 70 248 3.0 6.0 0.00 0.00 0.00 57 1010.3
20260508182205 70 245 3.0 6.0 0.00 0.00 0.00 56 1010.2
20260508182104 70 247 3.0 6.0 0.00 0.00 0.00 56 1010.2
20260508182004 70 255 3.0 6.0 0.00 0.00 0.00 55 1010.2
20260508181904 70 260 3.0 6.0 0.00 0.00 0.00 57 1010.2
20260508181704 69 255 2.0 6.0 0.00 0.00 0.00 59 1010.4
20260508181604 69 251 2.0 6.0 0.00 0.00 0.00 60 1010.5
20260508181404 69 250 2.0 5.0 0.00 0.00 0.00 60 1010.2
20260508181304 69 249 2.0 5.0 0.00 0.00 0.00 60 1010.0
20260508181204 69 250 2.0 5.0 0.00 0.00 0.00 60 1010.0
20260508181104 69 246 2.0 5.0 0.00 0.00 0.00 62 1010.0
20260508181004 69 233 2.0 4.0 0.00 0.00 0.00 62 1010.1
20260508180804 69 226 2.0 4.0 0.00 0.00 0.00 61 1010.2
20260508180704 69 224 2.0 4.0 0.00 0.00 0.00 61 1010.2
20260508180504 69 215 2.0 6.0 0.00 0.00 0.00 61 1010.2
20260508180404 69 213 2.0 6.0 0.00 0.00 0.00 61 1010.1
20260508180304 69 210 2.0 6.0 0.00 0.00 0.00 61 1010.1
20260508180204 69 207 2.0 6.0 0.00 0.00 0.00 61 1010.1
20260508180104 69 199 2.0 6.0 0.00 0.00 0.00 62 1010.0
20260508180004 69 195 2.0 6.0 0.00 0.00 0.00 61 1009.8
20260508175904 69 189 1.0 6.0 0.00 0.00 0.00 61 1009.7
20260508175804 69 189 1.0 6.0 0.00 0.00 0.00 61 1009.6
20260508175604 69 192 1.0 6.0 0.00 0.00 0.00 60 1009.4
20260508175404 69 142 0.0 4.0 0.00 0.00 0.00 60 1009.1
20260508175306 69 141 1.0 3.0 0.00 0.00 0.00 60 1009.0
20260508175204 69 147 0.0 3.0 0.00 0.00 0.00 60 1009.3
20260508175104 69 159 0.0 3.0 0.00 0.00 0.00 60 1009.4
20260508174904 69 172 1.0 7.0 0.00 0.00 0.00 58 1009.6
20260508174804 69 178 1.0 7.0 0.00 0.00 0.00 59 1009.7
20260508174604 69 188 1.0 7.0 0.00 0.00 0.00 57 1009.9
20260508174504 69 192 1.0 7.0 0.00 0.00 0.00 57 1010.1
20260508174404 69 198 1.0 7.0 0.00 0.00 0.00 57 1010.2
20260508174304 69 200 1.0 7.0 0.00 0.00 0.00 57 1010.2
20260508174204 69 205 1.0 7.0 0.00 0.00 0.00 56 1010.2
20260508174104 70 207 1.0 7.0 0.00 0.00 0.00 56 1010.3
20260508174004 70 213 1.0 7.0 0.00 0.00 0.00 56 1010.3
20260508173904 70 220 1.0 4.0 0.00 0.00 0.00 56 1010.4
20260508173704 70 219 1.0 4.0 0.00 0.00 0.00 56 1010.5
20260508173604 70 219 1.0 4.0 0.00 0.00 0.00 56 1010.5
20260508173504 70 216 1.0 4.0 0.00 0.00 0.00 56 1010.5
20260508173404 70 221 2.0 4.0 0.00 0.00 0.00 56 1010.5
20260508173304 70 222 2.0 4.0 0.00 0.00 0.00 56 1010.4
20260508173204 70 218 2.0 4.0 0.00 0.00 0.00 56 1010.4
20260508173104 70 217 2.0 4.0 0.00 0.00 0.00 55 1010.3
20260508173005 70 212 2.0 4.0 0.00 0.00 0.00 55 1010.4
20260508172804 70 216 2.0 4.0 0.00 0.00 0.00 54 1010.4
20260508172604 70 227 2.0 6.0 0.00 0.00 0.00 54 1010.4
20260508172504 70 230 2.0 6.0 0.00 0.00 0.00 54 1010.4
20260508172404 70 228 1.0 6.0 0.00 0.00 0.00 54 1010.5
20260508172307 70 227 2.0 6.0 0.00 0.00 0.00 54 1010.5
20260508172204 70 233 2.0 6.0 0.00 0.00 0.00 55 1010.5
20260508172104 70 238 2.0 6.0 0.00 0.00 0.00 55 1010.6
20260508172004 70 247 2.0 6.0 0.00 0.00 0.00 55 1010.7
20260508171904 70 252 3.0 10.0 0.00 0.00 0.00 55 1010.8
20260508171804 70 250 3.0 10.0 0.00 0.00 0.00 54 1010.8
20260508171704 70 247 3.0 10.0 0.00 0.00 0.00 55 1010.7
20260508171604 70 247 3.0 10.0 0.00 0.00 0.00 55 1010.7
20260508171504 70 247 3.0 10.0 0.00 0.00 0.00 55 1010.7
20260508171404 70 246 3.0 10.0 0.00 0.00 0.00 54 1010.8
20260508171304 70 245 3.0 10.0 0.00 0.00 0.00 54 1010.8
20260508171205 70 246 3.0 10.0 0.00 0.00 0.00 54 1010.9
20260508171105 70 241 3.0 10.0 0.00 0.00 0.00 54 1011.0
20260508171005 70 238 3.0 10.0 0.00 0.00 0.00 54 1011.1
20260508170904 71 233 3.0 10.0 0.00 0.00 0.00 54 1011.0
20260508170804 71 232 3.0 10.0 0.00 0.00 0.00 53 1010.9
20260508170504 71 230 2.0 13.0 0.00 0.00 0.00 55 1010.6
20260508170404 71 231 2.0 13.0 0.00 0.00 0.00 55 1010.5
20260508170204 70 234 3.0 13.0 0.00 0.00 0.00 54 1010.6
20260508170104 70 235 3.0 13.0 0.00 0.00 0.00 54 1010.7
20260508170005 70 232 3.0 13.0 0.00 0.00 0.00 53 1010.6
20260508165905 70 231 3.0 13.0 0.00 0.00 0.00 53 1010.5
20260508165704 70 230 4.0 13.0 0.00 0.00 0.00 54 1010.6
20260508165604 70 230 4.0 13.0 0.00 0.00 0.00 55 1010.7
20260508165504 70 229 4.0 9.0 0.00 0.00 0.00 54 1010.6
20260508165404 70 226 4.0 9.0 0.00 0.00 0.00 54 1010.5
20260508165306 70 219 4.0 14.0 0.00 0.00 0.00 54 1010.5
20260508165204 71 218 4.0 14.0 0.00 0.00 0.00 55 1010.5
20260508165104 71 216 5.0 14.0 0.00 0.00 0.00 54 1010.5
20260508164904 71 213 5.0 14.0 0.00 0.00 0.00 54 1010.5
20260508164804 71 211 5.0 14.0 0.00 0.00 0.00 55 1010.5
20260508164704 71 207 5.0 14.0 0.00 0.00 0.00 55 1010.5
20260508164604 70 205 5.0 14.0 0.00 0.00 0.00 55 1010.4
20260508164504 70 204 5.0 14.0 0.00 0.00 0.00 55 1010.3
20260508164404 70 205 4.0 14.0 0.00 0.00 0.00 54 1010.3
20260508164304 70 206 5.0 14.0 0.00 0.00 0.00 55 1010.4
20260508164204 70 204 5.0 12.0 0.00 0.00 0.00 55 1010.5
20260508164004 70 205 5.0 11.0 0.00 0.00 0.00 55 1010.5
20260508163904 70 207 4.0 11.0 0.00 0.00 0.00 55 1010.4
20260508163804 70 206 4.0 10.0 0.00 0.00 0.00 56 1010.4
20260508163604 70 206 4.0 10.0 0.00 0.00 0.00 57 1010.4
20260508163504 70 207 3.0 10.0 0.00 0.00 0.00 57 1010.3
20260508163404 70 207 3.0 10.0 0.00 0.00 0.00 56 1010.3
20260508163304 70 205 3.0 10.0 0.00 0.00 0.00 56 1010.4
20260508163204 70 205 3.0 10.0 0.00 0.00 0.00 56 1010.4
20260508163104 70 202 3.0 8.0 0.00 0.00 0.00 57 1010.4
20260508162904 70 188 3.0 10.0 0.00 0.00 0.00 59 1010.4
20260508162804 70 188 3.0 10.0 0.00 0.00 0.00 58 1010.3
20260508162704 70 189 3.0 10.0 0.00 0.00 0.00 59 1010.3
20260508162504 69 187 3.0 10.0 0.00 0.00 0.00 60 1010.1
20260508162306 69 186 3.0 10.0 0.00 0.00 0.00 59 1009.9
20260508162203 69 184 3.0 10.0 0.00 0.00 0.00 60 1009.9
20260508162104 69 184 3.0 10.0 0.00 0.00 0.00 60 1010.0
20260508162004 69 184 3.0 8.0 0.00 0.00 0.00 59 1010.1
20260508161904 69 186 3.0 8.0 0.00 0.00 0.00 59 1010.2
20260508161804 69 186 3.0 7.0 0.00 0.00 0.00 59 1010.2
20260508161704 69 182 3.0 7.0 0.00 0.00 0.00 59 1010.1
20260508161404 69 191 3.0 7.0 0.00 0.00 0.00 59 1010.0
20260508161304 69 194 3.0 13.0 0.00 0.00 0.00 59 1010.0
20260508161204 69 198 3.0 13.0 0.00 0.00 0.00 60 1010.1
20260508161104 68 201 3.0 13.0 0.00 0.00 0.00 60 1010.2
20260508161004 68 203 3.0 13.0 0.00 0.00 0.00 59 1010.2
20260508160904 68 205 4.0 13.0 0.00 0.00 0.00 59 1010.3
20260508160804 68 208 3.0 13.0 0.00 0.00 0.00 59 1010.3
20260508160704 68 209 3.0 13.0 0.00 0.00 0.00 59 1010.3
20260508160604 68 211 3.0 13.0 0.00 0.00 0.00 60 1010.4
20260508160504 68 212 3.0 13.0 0.00 0.00 0.00 59 1010.4
20260508160404 68 211 3.0 13.0 0.00 0.00 0.00 59 1010.3
20260508160305 68 216 3.0 7.0 0.00 0.00 0.00 60 1010.3
20260508160204 68 212 3.0 7.0 0.00 0.00 0.00 59 1010.3
20260508160104 68 210 3.0 7.0 0.00 0.00 0.00 60 1010.4
20260508160004 68 207 3.0 7.0 0.00 0.00 0.00 60 1010.6
20260508155904 68 205 3.0 7.0 0.00 0.00 0.00 60 1010.6
20260508155804 67 197 3.0 7.0 0.00 0.00 0.00 61 1010.6
20260508155704 67 197 3.0 7.0 0.00 0.00 0.00 60 1010.6
20260508155405 67 184 3.0 7.0 0.00 0.00 0.00 62 1010.7
20260508155306 67 181 3.0 7.0 0.00 0.00 0.00 61 1010.7
20260508155205 67 178 2.0 7.0 0.00 0.00 0.00 62 1010.7
20260508155105 67 181 2.0 7.0 0.00 0.00 0.00 62 1010.7
20260508155005 67 179 3.0 7.0 0.00 0.00 0.00 62 1010.8
20260508154905 67 184 3.0 7.0 0.00 0.00 0.00 62 1010.7
20260508154805 67 188 3.0 8.0 0.00 0.00 0.00 63 1010.7
20260508154605 66 191 3.0 8.0 0.00 0.00 0.00 64 1010.8
20260508154505 66 191 3.0 8.0 0.00 0.00 0.00 64 1010.7
20260508154404 66 192 3.0 8.0 0.00 0.00 0.00 63 1010.7
20260508154304 66 191 3.0 8.0 0.00 0.00 0.00 63 1010.7
20260508154104 66 189 3.0 8.0 0.00 0.00 0.00 63 1010.7
20260508154004 66 190 3.0 8.0 0.00 0.00 0.00 63 1010.6
20260508153904 66 189 3.0 8.0 0.00 0.00 0.00 63 1010.6
20260508153804 66 185 2.0 7.0 0.00 0.00 0.00 63 1010.6
20260508153704 66 182 2.0 6.0 0.00 0.00 0.00 64 1010.6
20260508153604 66 184 2.0 6.0 0.00 0.00 0.00 64 1010.6
20260508153504 66 183 2.0 6.0 0.00 0.00 0.00 63 1010.6
20260508153404 66 181 2.0 6.0 0.00 0.00 0.00 64 1010.6
20260508153304 66 183 2.0 6.0 0.00 0.00 0.00 64 1010.6
20260508153104 65 190 2.0 6.0 0.00 0.00 0.00 64 1010.6
20260508152905 65 190 3.0 8.0 0.00 0.00 0.00 65 1010.6
20260508152805 65 190 3.0 8.0 0.00 0.00 0.00 64 1010.5
20260508152605 65 186 2.0 8.0 0.00 0.00 0.00 65 1010.7
20260508152505 65 190 2.0 8.0 0.00 0.00 0.00 65 1010.7
20260508152404 65 189 2.0 8.0 0.00 0.00 0.00 64 1010.7
20260508152204 65 189 2.0 8.0 0.00 0.00 0.00 64 1010.8
20260508152104 65 190 2.0 8.0 0.00 0.00 0.00 64 1010.8
20260508152004 65 190 2.0 6.0 0.00 0.00 0.00 65 1010.8
20260508151804 65 199 2.0 5.0 0.00 0.00 0.00 65 1010.9
20260508151605 64 205 2.0 5.0 0.00 0.00 0.00 66 1011.1
20260508151505 64 203 2.0 5.0 0.00 0.00 0.00 65 1011.2
20260508151304 64 215 2.0 5.0 0.00 0.00 0.00 66 1011.1
20260508151205 64 210 2.0 5.0 0.00 0.00 0.00 66 1011.2
20260508151105 64 207 2.0 5.0 0.00 0.00 0.00 66 1011.3
20260508150904 64 210 3.0 6.0 0.00 0.00 0.00 66 1011.3
20260508150804 64 207 2.0 7.0 0.00 0.00 0.00 66 1011.3
20260508150605 64 205 2.0 7.0 0.00 0.00 0.00 66 1011.3
20260508150505 64 203 2.0 7.0 0.00 0.00 0.00 66 1011.3
20260508150405 64 199 2.0 7.0 0.00 0.00 0.00 66 1011.2
20260508150305 64 195 2.0 7.0 0.00 0.00 0.00 66 1011.1
20260508150205 64 195 2.0 7.0 0.00 0.00 0.00 66 1011.1
20260508150105 64 195 2.0 7.0 0.00 0.00 0.00 66 1011.1
20260508145904 64 184 2.0 7.0 0.00 0.00 0.00 66 1011.0
20260508145804 64 181 2.0 8.0 0.00 0.00 0.00 66 1010.9
20260508145705 64 178 2.0 8.0 0.00 0.00 0.00 67 1010.9
20260508145605 63 173 2.0 8.0 0.00 0.00 0.00 67 1010.9
20260508145404 63 173 2.0 8.0 0.00 0.00 0.00 68 1010.8
20260508145307 63 174 3.0 8.0 0.00 0.00 0.00 68 1010.7
20260508145105 63 173 3.0 8.0 0.00 0.00 0.00 69 1010.6